Wetterdaten: Donnerstag, 17.01.2019
Datum Zeit Temp. Aussen Temp. o. S. +5cm Feuchte Auss Luftdruck Regen Sonnenschein Regendauer Solar Windben Empfang
17.01.2019 00:00 5,8 C 4,4 C 4,4 C 85 % 1000,4 hPa 0,0 l/m 0 min 2 min 0 W/m 19,3 km/h (3 Bft) 97,87 %
17.01.2019 00:02 5,8 C 5,0 C 4,4 C 85 % 1000,3 hPa 0,0 l/m 0 min 2 min 0 W/m 25,7 km/h (4 Bft) 96,97 %
17.01.2019 00:04 5,8 C 4,4 C 3,9 C 85 % 1000,3 hPa 0,0 l/m 0 min 2 min 0 W/m 35,4 km/h (5 Bft) 97,83 %
17.01.2019 00:07 5,8 C 4,4 C 3,9 C 86 % 1000,3 hPa 0,0 l/m 0 min 3 min 0 W/m 29,0 km/h (5 Bft) 97,56 %
17.01.2019 00:08 5,8 C 4,4 C 3,9 C 86 % 1000,3 hPa 0,0 l/m 0 min 1 min 0 W/m 25,7 km/h (4 Bft) 100,00 %
17.01.2019 00:10 5,7 C 3,9 C 3,9 C 86 % 1000,3 hPa 0,0 l/m 0 min 2 min 0 W/m 25,7 km/h (4 Bft) 100,00 %
17.01.2019 00:12 5,7 C 3,9 C 3,3 C 86 % 1000,4 hPa 0,0 l/m 0 min 2 min 0 W/m 32,2 km/h (5 Bft) 97,87 %
17.01.2019 00:14 5,7 C 3,9 C 3,3 C 86 % 1000,3 hPa 0,0 l/m 0 min 2 min 0 W/m 35,4 km/h (5 Bft) 100,00 %
17.01.2019 00:16 5,7 C 3,9 C 3,3 C 87 % 1000,3 hPa 0,0 l/m 0 min 2 min 0 W/m 25,7 km/h (4 Bft) 100,00 %
17.01.2019 00:18 5,7 C 4,4 C 3,3 C 87 % 1000,3 hPa 0,0 l/m 0 min 2 min 0 W/m 29,0 km/h (5 Bft) 95,74 %
17.01.2019 00:20 5,6 C 4,4 C 3,3 C 87 % 1000,4 hPa 0,0 l/m 0 min 2 min 0 W/m 29,0 km/h (5 Bft) 97,87 %
17.01.2019 00:22 5,6 C 3,9 C 3,3 C 87 % 1000,4 hPa 0,0 l/m 0 min 2 min 0 W/m 32,2 km/h (5 Bft) 97,87 %
17.01.2019 00:24 5,6 C 3,9 C 3,3 C 88 % 1000,4 hPa 0,0 l/m 0 min 2 min 0 W/m 22,5 km/h (4 Bft) 95,74 %
17.01.2019 00:26 5,5 C 3,9 C 3,3 C 88 % 1000,3 hPa 0,0 l/m 0 min 2 min 0 W/m 35,4 km/h (5 Bft) 95,65 %
17.01.2019 00:28 5,5 C 3,9 C 3,3 C 88 % 1000,3 hPa 0,0 l/m 0 min 2 min 0 W/m 16,1 km/h (3 Bft) 97,87 %
17.01.2019 00:30 5,5 C 3,9 C 3,3 C 88 % 1000,2 hPa 0,0 l/m 0 min 2 min 0 W/m 22,5 km/h (4 Bft) 91,49 %
17.01.2019 00:32 5,4 C 4,4 C 3,3 C 89 % 1000,2 hPa 0,0 l/m 0 min 2 min 0 W/m 29,0 km/h (5 Bft) 95,74 %
17.01.2019 00:34 5,4 C 4,4 C 3,9 C 89 % 1000,2 hPa 0,0 l/m 0 min 2 min 0 W/m 25,7 km/h (4 Bft) 93,62 %
17.01.2019 00:36 5,4 C 4,4 C 3,9 C 89 % 1000,3 hPa 0,0 l/m 0 min 2 min 0 W/m 32,2 km/h (5 Bft) 96,55 %
17.01.2019 00:38 5,4 C 4,4 C 3,9 C 89 % 1000,2 hPa 0,0 l/m 0 min 2 min 0 W/m 29,0 km/h (5 Bft) 94,44 %
17.01.2019 00:40 5,4 C 4,4 C 3,9 C 89 % 1000,1 hPa 0,0 l/m 0 min 2 min 0 W/m 41,8 km/h (6 Bft) 95,65 %
17.01.2019 00:42 5,3 C 3,9 C 3,9 C 90 % 1000,5 hPa 0,0 l/m 0 min 2 min 0 W/m 19,3 km/h (3 Bft) 93,62 %
17.01.2019 00:44 5,3 C 4,4 C 3,9 C 90 % 1000,2 hPa 0,0 l/m 0 min 2 min 0 W/m 22,5 km/h (4 Bft) 93,62 %
17.01.2019 00:46 5,3 C 3,9 C 3,9 C 90 % 1000,2 hPa 0,0 l/m 0 min 2 min 0 W/m 16,1 km/h (3 Bft) 95,74 %
17.01.2019 00:48 5,3 C 4,4 C 3,9 C 90 % 1000,3 hPa 0,0 l/m 0 min 2 min 0 W/m 35,4 km/h (5 Bft) 95,74 %
17.01.2019 00:50 5,3 C 4,4 C 3,9 C 90 % 1000,4 hPa 0,0 l/m 0 min 2 min 0 W/m 32,2 km/h (5 Bft) 95,65 %
17.01.2019 00:52 5,3 C 4,4 C 3,9 C 90 % 1000,3 hPa 0,0 l/m 0 min 2 min 0 W/m 25,7 km/h (4 Bft) 93,62 %
17.01.2019 00:54 5,2 C 4,4 C 3,9 C 90 % 1000,3 hPa 0,0 l/m 0 min 2 min 0 W/m 22,5 km/h (4 Bft) 95,74 %
17.01.2019 00:56 5,2 C 4,4 C 3,9 C 91 % 1000,1 hPa 0,0 l/m 0 min 2 min 0 W/m 35,4 km/h (5 Bft) 93,62 %
17.01.2019 00:58 5,2 C 4,4 C 3,9 C 91 % 1000,2 hPa 0,0 l/m 0 min 2 min 0 W/m 29,0 km/h (5 Bft) 95,74 %
17.01.2019 01:00 5,2 C 4,4 C 3,9 C 91 % 1000,3 hPa 0,0 l/m 0 min 2 min 0 W/m 29,0 km/h (5 Bft) 95,74 %
17.01.2019 01:02 5,2 C 4,4 C 3,9 C 91 % 1000,3 hPa 0,0 l/m 0 min 2 min 0 W/m 35,4 km/h (5 Bft) 95,65 %
17.01.2019 01:04 5,2 C 4,4 C 3,9 C 91 % 1000,1 hPa 0,0 l/m 0 min 2 min 0 W/m 32,2 km/h (5 Bft) 95,74 %
17.01.2019 01:06 5,2 C 4,4 C 3,9 C 91 % 1000,2 hPa 0,0 l/m 0 min 2 min 0 W/m 38,6 km/h (5 Bft) 94,92 %
17.01.2019 01:08 5,2 C 4,4 C 3,9 C 91 % 1000,1 hPa 0,0 l/m 0 min 2 min 0 W/m 22,5 km/h (4 Bft) 97,14 %
17.01.2019 01:10 5,2 C 4,4 C 3,9 C 92 % 1000,1 hPa 0,0 l/m 0 min 2 min 0 W/m 29,0 km/h (5 Bft) 95,74 %
17.01.2019 01:12 5,2 C 4,4 C 3,9 C 91 % 1000,1 hPa 0,0 l/m 0 min 2 min 0 W/m 25,7 km/h (4 Bft) 97,87 %
17.01.2019 01:14 5,2 C 4,4 C 3,9 C 92 % 1000,3 hPa 0,0 l/m 0 min 2 min 0 W/m 29,0 km/h (5 Bft) 95,65 %
17.01.2019 01:16 5,2 C 4,4 C 3,9 C 92 % 1000,2 hPa 0,0 l/m 0 min 2 min 0 W/m 29,0 km/h (5 Bft) 97,87 %
17.01.2019 01:18 5,2 C 4,4 C 3,9 C 92 % 1000,2 hPa 0,0 l/m 0 min 2 min 0 W/m 19,3 km/h (3 Bft) 97,87 %
17.01.2019 01:20 5,1 C 4,4 C 3,9 C 92 % 1000,2 hPa 0,0 l/m 0 min 2 min 0 W/m 32,2 km/h (5 Bft) 95,74 %
17.01.2019 01:22 5,1 C 4,4 C 3,9 C 92 % 1000,2 hPa 0,0 l/m 0 min 2 min 0 W/m 25,7 km/h (4 Bft) 97,87 %
17.01.2019 01:24 5,1 C 4,4 C 3,3 C 92 % 1000,3 hPa 0,0 l/m 0 min 2 min 0 W/m 22,5 km/h (4 Bft) 97,87 %
17.01.2019 01:26 5,1 C 4,4 C 3,3 C 92 % 1000,4 hPa 0,0 l/m 0 min 2 min 0 W/m 29,0 km/h (5 Bft) 97,83 %
17.01.2019 01:28 5,1 C 3,9 C 3,3 C 92 % 1000,2 hPa 0,0 l/m 0 min 2 min 0 W/m 16,1 km/h (3 Bft) 100,00 %
17.01.2019 01:30 5,1 C 3,9 C 3,3 C 92 % 1000,2 hPa 0,0 l/m 0 min 2 min 0 W/m 19,3 km/h (3 Bft) 100,00 %
17.01.2019 01:32 5,1 C 3,9 C 3,3 C 93 % 1000,2 hPa 0,0 l/m 0 min 2 min 0 W/m 22,5 km/h (4 Bft) 100,00 %
17.01.2019 01:34 5,1 C 3,9 C 3,3 C 92 % 1000,2 hPa 0,0 l/m 0 min 2 min 0 W/m 29,0 km/h (5 Bft) 97,87 %
17.01.2019 01:36 5,1 C 3,9 C 3,3 C 93 % 1000,2 hPa 0,2 l/m 0 min 2 min 0 W/m 32,2 km/h (5 Bft) 100,00 %
17.01.2019 01:38 5,1 C 3,9 C 3,3 C 93 % 1000,3 hPa 0,0 l/m 0 min 2 min 0 W/m 25,7 km/h (4 Bft) 100,00 %
17.01.2019 01:40 5,1 C 3,9 C 3,3 C 93 % 1000,2 hPa 0,0 l/m 0 min 0 min 0 W/m 22,5 km/h (4 Bft) 100,00 %
17.01.2019 01:42 5,1 C 3,9 C 3,3 C 93 % 1000,2 hPa 0,0 l/m 0 min 2 min 0 W/m 19,3 km/h (3 Bft) 100,00 %
17.01.2019 01:44 5,0 C 3,9 C 3,3 C 93 % 1000,2 hPa 0,0 l/m 0 min 2 min 0 W/m 16,1 km/h (3 Bft) 97,87 %
17.01.2019 01:46 5,0 C 3,9 C 3,3 C 93 % 1000,3 hPa 0,0 l/m 0 min 2 min 0 W/m 25,7 km/h (4 Bft) 100,00 %
17.01.2019 01:48 5,0 C 3,9 C 3,3 C 93 % 1000,2 hPa 0,0 l/m 0 min 2 min 0 W/m 25,7 km/h (4 Bft) 97,83 %
17.01.2019 01:50 5,0 C 3,9 C 3,3 C 93 % 1000,3 hPa 0,0 l/m 0 min 2 min 0 W/m 38,6 km/h (5 Bft) 100,00 %
17.01.2019 01:52 5,0 C 3,9 C 3,3 C 93 % 1000,3 hPa 0,0 l/m 0 min 2 min 0 W/m 25,7 km/h (4 Bft) 97,87 %
17.01.2019 01:54 5,0 C 3,9 C 3,3 C 94 % 1000,2 hPa 0,0 l/m 0 min 2 min 0 W/m 22,5 km/h (4 Bft) 97,87 %
17.01.2019 01:56 5,0 C 3,9 C 3,3 C 93 % 1000,1 hPa 0,0 l/m 0 min 2 min 0 W/m 22,5 km/h (4 Bft) 95,74 %
17.01.2019 01:58 5,0 C 3,9 C 3,3 C 93 % 1000,2 hPa 0,0 l/m 0 min 2 min 0 W/m 19,3 km/h (3 Bft) 97,87 %
17.01.2019 02:00 5,1 C 3,9 C 3,3 C 94 % 1000,3 hPa 0,0 l/m 0 min 2 min 0 W/m 16,1 km/h (3 Bft) 100,00 %
17.01.2019 02:02 5,1 C 3,9 C 3,3 C 94 % 1000,2 hPa 0,0 l/m 0 min 2 min 0 W/m 32,2 km/h (5 Bft) 100,00 %
17.01.2019 02:04 5,1 C 3,9 C 3,3 C 94 % 1000,2 hPa 0,0 l/m 0 min 2 min 0 W/m 19,3 km/h (3 Bft) 97,87 %
17.01.2019 02:06 5,1 C 3,9 C 3,3 C 94 % 1000,2 hPa 0,0 l/m 0 min 2 min 0 W/m 22,5 km/h (4 Bft) 98,31 %
17.01.2019 02:08 5,1 C 3,9 C 3,3 C 94 % 1000,2 hPa 0,0 l/m 0 min 0 min 0 W/m 16,1 km/h (3 Bft) 100,00 %
17.01.2019 02:10 5,1 C 3,9 C 3,3 C 94 % 1000,2 hPa 0,0 l/m 0 min 2 min 0 W/m 25,7 km/h (4 Bft) 97,87 %
17.01.2019 02:12 5,1 C 3,9 C 3,3 C 94 % 1000,2 hPa 0,0 l/m 0 min 2 min 0 W/m 16,1 km/h (3 Bft) 97,83 %
17.01.2019 02:14 5,1 C 3,9 C 3,3 C 94 % 1000,2 hPa 0,0 l/m 0 min 0 min 0 W/m 12,9 km/h (3 Bft) 97,87 %
17.01.2019 02:16 5,1 C 3,9 C 3,3 C 94 % 1000,2 hPa 0,0 l/m 0 min 0 min 0 W/m 16,1 km/h (3 Bft) 97,87 %
17.01.2019 02:18 5,1 C 3,9 C 3,3 C 94 % 1000,1 hPa 0,0 l/m 0 min 2 min 0 W/m 9,7 km/h (2 Bft) 97,87 %
17.01.2019 02:20 5,1 C 3,9 C 3,3 C 94 % 1000,2 hPa 0,0 l/m 0 min 2 min 0 W/m 12,9 km/h (3 Bft) 97,87 %
17.01.2019 02:22 5,1 C 3,9 C 3,3 C 94 % 1000,2 hPa 0,0 l/m 0 min 2 min 0 W/m 9,7 km/h (2 Bft) 97,87 %
17.01.2019 02:24 5,1 C 3,9 C 3,3 C 94 % 1000,3 hPa 0,0 l/m 0 min 2 min 0 W/m 22,5 km/h (4 Bft) 93,48 %
17.01.2019 02:26 5,1 C 3,9 C 3,3 C 94 % 1000,3 hPa 0,0 l/m 0 min 2 min 0 W/m 16,1 km/h (3 Bft) 97,87 %
17.01.2019 02:28 5,1 C 3,9 C 3,3 C 94 % 1000,3 hPa 0,0 l/m 0 min 2 min 0 W/m 22,5 km/h (4 Bft) 97,87 %
17.01.2019 02:30 5,1 C 3,9 C 3,9 C 94 % 1000,2 hPa 0,0 l/m 0 min 2 min 0 W/m 19,3 km/h (3 Bft) 95,74 %
17.01.2019 02:32 5,1 C 3,9 C 3,9 C 94 % 1000,1 hPa 0,0 l/m 0 min 2 min 0 W/m 25,7 km/h (4 Bft) 95,74 %
17.01.2019 02:34 5,1 C 3,9 C 3,9 C 94 % 1000,3 hPa 0,0 l/m 0 min 2 min 0 W/m 19,3 km/h (3 Bft) 97,87 %
17.01.2019 02:36 5,1 C 3,9 C 3,3 C 94 % 1000,4 hPa 0,0 l/m 0 min 2 min 0 W/m 12,9 km/h (3 Bft) 97,83 %
17.01.2019 02:38 5,1 C 3,9 C 3,9 C 94 % 1000,3 hPa 0,0 l/m 0 min 2 min 0 W/m 16,1 km/h (3 Bft) 97,87 %
17.01.2019 02:40 5,1 C 3,9 C 3,9 C 94 % 1000,4 hPa 0,0 l/m 0 min 2 min 0 W/m 22,5 km/h (4 Bft) 97,87 %
17.01.2019 02:42 5,1 C 3,9 C 3,9 C 95 % 1000,4 hPa 0,0 l/m 0 min 2 min 0 W/m 22,5 km/h (4 Bft) 97,87 %
17.01.2019 02:44 5,1 C 3,9 C 3,9 C 94 % 1000,4 hPa 0,0 l/m 0 min 2 min 0 W/m 19,3 km/h (3 Bft) 97,87 %
17.01.2019 02:46 5,1 C 3,9 C 3,9 C 94 % 1000,5 hPa 0,0 l/m 0 min 2 min 0 W/m 19,3 km/h (3 Bft) 93,62 %
17.01.2019 02:48 5,1 C 3,9 C 3,3 C 95 % 1000,4 hPa 0,0 l/m 0 min 2 min 0 W/m 12,9 km/h (3 Bft) 97,83 %
17.01.2019 02:50 5,1 C 3,9 C 3,9 C 95 % 1000,4 hPa 0,0 l/m 0 min 2 min 0 W/m 19,3 km/h (3 Bft) 97,87 %
17.01.2019 02:52 5,1 C 3,9 C 3,9 C 95 % 1000,4 hPa 0,0 l/m 0 min 2 min 0 W/m 9,7 km/h (2 Bft) 97,87 %
17.01.2019 02:54 5,1 C 3,9 C 3,9 C 95 % 1000,5 hPa 0,0 l/m 0 min 2 min 0 W/m 9,7 km/h (2 Bft) 95,74 %
17.01.2019 02:56 5,1 C 3,9 C 3,9 C 95 % 1000,5 hPa 0,2 l/m 0 min 2 min 0 W/m 9,7 km/h (2 Bft) 97,87 %
17.01.2019 02:58 5,1 C 3,9 C 3,9 C 95 % 1000,5 hPa 0,0 l/m 0 min 2 min 0 W/m 12,9 km/h (3 Bft) 97,83 %
17.01.2019 03:00 5,1 C 3,9 C 3,9 C 95 % 1000,5 hPa 0,0 l/m 0 min 2 min 0 W/m 9,7 km/h (2 Bft) 100,00 %
17.01.2019 03:02 5,1 C 3,9 C 3,9 C 95 % 1000,5 hPa 0,0 l/m 0 min 2 min 0 W/m 12,9 km/h (3 Bft) 100,00 %
17.01.2019 03:04 5,1 C 3,9 C 3,9 C 95 % 1000,5 hPa 0,0 l/m 0 min 0 min 0 W/m 6,4 km/h (2 Bft) 97,87 %
17.01.2019 03:06 5,2 C 3,9 C 3,9 C 95 % 1000,4 hPa 0,0 l/m 0 min 0 min 0 W/m 12,9 km/h (3 Bft) 94,92 %
17.01.2019 03:08 5,1 C 3,9 C 3,9 C 95 % 1000,4 hPa 0,0 l/m 0 min 0 min 0 W/m 16,1 km/h (3 Bft) 100,00 %
17.01.2019 03:10 5,1 C 3,9 C 3,9 C 95 % 1000,4 hPa 0,0 l/m 0 min 0 min 0 W/m 12,9 km/h (3 Bft) 95,65 %
17.01.2019 03:12 5,1 C 3,9 C 3,9 C 95 % 1000,4 hPa 0,0 l/m 0 min 2 min 0 W/m 16,1 km/h (3 Bft) 97,87 %
17.01.2019 03:14 5,1 C 4,4 C 3,9 C 95 % 1000,5 hPa 0,0 l/m 0 min 0 min 0 W/m 19,3 km/h (3 Bft) 97,87 %
17.01.2019 03:16 5,2 C 3,9 C 3,9 C 95 % 1000,5 hPa 0,0 l/m 0 min 0 min 0 W/m 19,3 km/h (3 Bft) 97,87 %
17.01.2019 03:18 5,2 C 4,4 C 3,9 C 95 % 1000,5 hPa 0,0 l/m 0 min 0 min 0 W/m 9,7 km/h (2 Bft) 97,87 %
17.01.2019 03:20 5,2 C 4,4 C 3,9 C 95 % 1000,4 hPa 0,0 l/m 0 min 0 min 0 W/m 6,4 km/h (2 Bft) 95,74 %
17.01.2019 03:22 5,2 C 4,4 C 3,9 C 95 % 1000,5 hPa 0,0 l/m 0 min 0 min 0 W/m 6,4 km/h (2 Bft) 97,83 %
17.01.2019 03:24 5,2 C 4,4 C 3,9 C 95 % 1000,4 hPa 0,0 l/m 0 min 0 min 0 W/m 9,7 km/h (2 Bft) 97,87 %
17.01.2019 03:26 5,2 C 4,4 C 3,9 C 95 % 1000,5 hPa 0,0 l/m 0 min 0 min 0 W/m 12,9 km/h (3 Bft) 97,87 %
17.01.2019 03:28 5,2 C 4,4 C 3,9 C 95 % 1000,5 hPa 0,0 l/m 0 min 0 min 0 W/m 19,3 km/h (3 Bft) 95,74 %
17.01.2019 03:30 5,2 C 4,4 C 3,9 C 95 % 1000,5 hPa 0,0 l/m 0 min 0 min 0 W/m 9,7 km/h (2 Bft) 97,87 %
17.01.2019 03:32 5,2 C 4,4 C 3,9 C 95 % 1000,5 hPa 0,0 l/m 0 min 0 min 0 W/m 22,5 km/h (4 Bft) 97,87 %
17.01.2019 03:34 5,2 C 4,4 C 3,9 C 95 % 1000,6 hPa 0,0 l/m 0 min 0 min 0 W/m 19,3 km/h (3 Bft) 97,83 %
17.01.2019 03:36 5,2 C 4,4 C 3,9 C 95 % 1000,6 hPa 0,0 l/m 0 min 0 min 0 W/m 22,5 km/h (4 Bft) 98,31 %
17.01.2019 03:38 5,2 C 4,4 C 3,9 C 95 % 1000,6 hPa 0,0 l/m 0 min 2 min 0 W/m 9,7 km/h (2 Bft) 97,14 %
17.01.2019 03:40 5,2 C 4,4 C 3,9 C 95 % 1000,6 hPa 0,0 l/m 0 min 2 min 0 W/m 12,9 km/h (3 Bft) 95,74 %
17.01.2019 03:42 5,2 C 4,4 C 3,9 C 95 % 1000,6 hPa 0,0 l/m 0 min 2 min 0 W/m 6,4 km/h (2 Bft) 97,87 %
17.01.2019 03:44 5,2 C 4,4 C 3,9 C 95 % 1000,6 hPa 0,0 l/m 0 min 2 min 0 W/m 9,7 km/h (2 Bft) 97,87 %
17.01.2019 03:46 5,2 C 4,4 C 3,9 C 95 % 1000,6 hPa 0,0 l/m 0 min 2 min 0 W/m 9,7 km/h (2 Bft) 95,65 %
17.01.2019 03:48 5,2 C 4,4 C 3,9 C 95 % 1000,5 hPa 0,0 l/m 0 min 2 min 0 W/m 9,7 km/h (2 Bft) 100,00 %
17.01.2019 03:50 5,2 C 4,4 C 3,9 C 95 % 1000,5 hPa 0,0 l/m 0 min 0 min 0 W/m 12,9 km/h (3 Bft) 100,00 %
17.01.2019 03:52 5,2 C 4,4 C 3,9 C 95 % 1000,4 hPa 0,0 l/m 0 min 0 min 0 W/m 19,3 km/h (3 Bft) 97,87 %
17.01.2019 03:54 5,2 C 4,4 C 3,9 C 95 % 1000,4 hPa 0,0 l/m 0 min 2 min 0 W/m 6,4 km/h (2 Bft) 97,87 %
17.01.2019 03:56 5,2 C 4,4 C 3,9 C 95 % 1000,3 hPa 0,0 l/m 0 min 2 min 0 W/m 12,9 km/h (3 Bft) 97,87 %
17.01.2019 03:58 5,2 C 4,4 C 3,9 C 95 % 1000,3 hPa 0,0 l/m 0 min 0 min 0 W/m 12,9 km/h (3 Bft) 100,00 %
17.01.2019 04:00 5,2 C 4,4 C 3,9 C 95 % 1000,3 hPa 0,0 l/m 0 min 0 min 0 W/m 6,4 km/h (2 Bft) 100,00 %
17.01.2019 04:02 5,2 C 4,4 C 3,9 C 95 % 1000,3 hPa 0,0 l/m 0 min 0 min 0 W/m 9,7 km/h (2 Bft) 95,83 %
17.01.2019 04:05 5,2 C 4,4 C 3,9 C 95 % 1000,4 hPa 0,0 l/m 0 min 0 min 0 W/m 12,9 km/h (3 Bft) 85,09 %
17.01.2019 04:12 5,2 C 4,4 C 3,9 C 96 % 1000,2 hPa 0,0 l/m 0 min 0 min 0 W/m 9,7 km/h (2 Bft) 100,00 %
17.01.2019 04:14 5,2 C 4,4 C 3,9 C 96 % 1000,2 hPa 0,0 l/m 0 min 0 min 0 W/m 6,4 km/h (2 Bft) 100,00 %
17.01.2019 04:16 5,2 C 4,4 C 3,9 C 96 % 1000,3 hPa 0,0 l/m 0 min 0 min 0 W/m 9,7 km/h (2 Bft) 97,14 %
17.01.2019 04:18 5,2 C 4,4 C 3,9 C 96 % 1000,2 hPa 0,0 l/m 0 min 0 min 0 W/m 6,4 km/h (2 Bft) 95,74 %
17.01.2019 04:20 5,2 C 4,4 C 3,9 C 96 % 1000,3 hPa 0,0 l/m 0 min 0 min 0 W/m 6,4 km/h (2 Bft) 97,83 %
17.01.2019 04:22 5,2 C 4,4 C 3,9 C 96 % 1000,4 hPa 0,0 l/m 0 min 0 min 0 W/m 6,4 km/h (2 Bft) 97,87 %
17.01.2019 04:24 5,2 C 4,4 C 3,9 C 96 % 1000,4 hPa 0,0 l/m 0 min 0 min 0 W/m 9,7 km/h (2 Bft) 97,87 %
17.01.2019 04:26 5,2 C 4,4 C 3,9 C 96 % 1000,3 hPa 0,0 l/m 0 min 0 min 0 W/m 6,4 km/h (2 Bft) 96,36 %
17.01.2019 04:28 5,2 C 4,4 C 3,9 C 96 % 1000,3 hPa 0,0 l/m 0 min 0 min 0 W/m 6,4 km/h (2 Bft) 95,92 %
17.01.2019 04:30 5,2 C 4,4 C 3,9 C 96 % 1000,4 hPa 0,0 l/m 0 min 0 min 0 W/m 12,9 km/h (3 Bft) 97,92 %
17.01.2019 04:32 5,2 C 4,4 C 3,9 C 96 % 1000,3 hPa 0,0 l/m 0 min 0 min 0 W/m 9,7 km/h (2 Bft) 100,00 %
17.01.2019 04:34 5,2 C 4,4 C 3,9 C 96 % 1000,4 hPa 0,0 l/m 0 min 0 min 0 W/m 6,4 km/h (2 Bft) 96,36 %
17.01.2019 04:36 5,2 C 4,4 C 3,9 C 96 % 1000,4 hPa 0,0 l/m 0 min 0 min 0 W/m 12,9 km/h (3 Bft) 98,00 %
17.01.2019 04:38 5,2 C 4,4 C 3,9 C 96 % 1000,4 hPa 0,0 l/m 0 min 0 min 0 W/m 12,9 km/h (3 Bft) 95,65 %
17.01.2019 04:40 5,2 C 4,4 C 3,9 C 96 % 1000,4 hPa 0,0 l/m 0 min 0 min 0 W/m 6,4 km/h (2 Bft) 95,74 %
17.01.2019 04:42 5,2 C 4,4 C 3,9 C 96 % 1000,4 hPa 0,0 l/m 0 min 0 min 0 W/m 12,9 km/h (3 Bft) 97,87 %
17.01.2019 04:44 5,2 C 4,4 C 3,9 C 96 % 1000,4 hPa 0,0 l/m 0 min 0 min 0 W/m 6,4 km/h (2 Bft) 97,87 %
17.01.2019 04:46 5,2 C 4,4 C 3,9 C 96 % 1000,4 hPa 0,0 l/m 0 min 0 min 0 W/m 6,4 km/h (2 Bft) 97,92 %
17.01.2019 04:48 5,2 C 4,4 C 3,9 C 96 % 1000,5 hPa 0,0 l/m 0 min 0 min 0 W/m 6,4 km/h (2 Bft) 95,74 %
17.01.2019 04:50 5,2 C 4,4 C 3,9 C 96 % 1000,5 hPa 0,0 l/m 0 min 0 min 0 W/m 6,4 km/h (2 Bft) 91,43 %
17.01.2019 04:52 5,2 C 4,4 C 3,9 C 95 % 1000,5 hPa 0,0 l/m 0 min 0 min 0 W/m 12,9 km/h (3 Bft) 96,30 %
17.01.2019 04:54 5,2 C 4,4 C 3,9 C 96 % 1000,5 hPa 0,0 l/m 0 min 0 min 0 W/m 12,9 km/h (3 Bft) 97,87 %
17.01.2019 04:56 5,2 C 4,4 C 3,9 C 96 % 1000,5 hPa 0,0 l/m 0 min 0 min 0 W/m 6,4 km/h (2 Bft) 98,00 %
17.01.2019 04:58 5,2 C 4,4 C 3,9 C 96 % 1000,5 hPa 0,0 l/m 0 min 0 min 0 W/m 9,7 km/h (2 Bft) 95,74 %
17.01.2019 05:00 5,2 C 4,4 C 3,9 C 96 % 1000,5 hPa 0,0 l/m 0 min 0 min 0 W/m 6,4 km/h (2 Bft) 95,74 %
17.01.2019 05:02 5,2 C 4,4 C 3,9 C 96 % 1000,4 hPa 0,0 l/m 0 min 0 min 0 W/m 9,7 km/h (2 Bft) 91,30 %
17.01.2019 05:04 5,2 C 4,4 C 3,9 C 95 % 1000,4 hPa 0,0 l/m 0 min 0 min 0 W/m 9,7 km/h (2 Bft) 95,92 %
17.01.2019 05:05 5,2 C 4,4 C 3,9 C 95 % 1000,4 hPa 0,0 l/m 0 min 0 min 0 W/m 9,7 km/h (2 Bft) 97,37 %
17.01.2019 05:12 5,2 C 4,4 C 3,9 C 96 % 1000,4 hPa 0,0 l/m 0 min 0 min 0 W/m 6,4 km/h (2 Bft) 97,37 %
17.01.2019 05:14 5,2 C 4,4 C 3,9 C 96 % 1000,5 hPa 0,0 l/m 0 min 0 min 0 W/m 9,7 km/h (2 Bft) 97,96 %
17.01.2019 05:16 5,2 C 4,4 C 3,9 C 96 % 1000,5 hPa 0,0 l/m 0 min 0 min 0 W/m 12,9 km/h (3 Bft) 95,74 %
17.01.2019 05:18 5,2 C 4,4 C 3,9 C 96 % 1000,4 hPa 0,0 l/m 0 min 0 min 0 W/m 6,4 km/h (2 Bft) 97,87 %
17.01.2019 05:20 5,2 C 4,4 C 3,9 C 96 % 1000,4 hPa 0,0 l/m 0 min 0 min 0 W/m 6,4 km/h (2 Bft) 97,87 %
17.01.2019 05:22 5,2 C 4,4 C 3,9 C 96 % 1000,4 hPa 0,0 l/m 0 min 0 min 0 W/m 6,4 km/h (2 Bft) 97,87 %
17.01.2019 05:24 5,2 C 4,4 C 3,9 C 96 % 1000,3 hPa 0,0 l/m 0 min 0 min 0 W/m 12,9 km/h (3 Bft) 97,87 %
17.01.2019 05:26 5,2 C 4,4 C 3,9 C 96 % 1000,3 hPa 0,0 l/m 0 min 0 min 0 W/m 9,7 km/h (2 Bft) 97,83 %
17.01.2019 05:28 5,2 C 4,4 C 3,9 C 96 % 1000,3 hPa 0,0 l/m 0 min 0 min 0 W/m 6,4 km/h (2 Bft) 97,87 %
17.01.2019 05:30 5,2 C 4,4 C 3,9 C 96 % 1000,3 hPa 0,0 l/m 0 min 0 min 0 W/m 9,7 km/h (2 Bft) 97,87 %
17.01.2019 05:32 5,2 C 4,4 C 3,9 C 96 % 1000,2 hPa 0,0 l/m 0 min 0 min 0 W/m 6,4 km/h (2 Bft) 95,74 %
17.01.2019 05:34 5,2 C 4,4 C 3,9 C 96 % 1000,3 hPa 0,0 l/m 0 min 0 min 0 W/m 6,4 km/h (2 Bft) 97,87 %
17.01.2019 05:36 5,2 C 4,4 C 3,9 C 96 % 1000,3 hPa 0,0 l/m 0 min 0 min 0 W/m 3,2 km/h (1 Bft) 97,87 %
17.01.2019 05:38 5,2 C 4,4 C 3,9 C 96 % 1000,3 hPa 0,0 l/m 0 min 0 min 0 W/m 6,4 km/h (2 Bft) 97,87 %
17.01.2019 05:40 5,2 C 4,4 C 3,9 C 96 % 1000,2 hPa 0,0 l/m 0 min 0 min 0 W/m 9,7 km/h (2 Bft) 97,87 %
17.01.2019 05:42 5,2 C 4,4 C 3,9 C 96 % 1000,3 hPa 0,0 l/m 0 min 0 min 0 W/m 9,7 km/h (2 Bft) 93,62 %
17.01.2019 05:44 5,2 C 4,4 C 3,9 C 96 % 1000,3 hPa 0,0 l/m 0 min 0 min 0 W/m 6,4 km/h (2 Bft) 97,87 %
17.01.2019 05:46 5,2 C 4,4 C 3,9 C 96 % 1000,2 hPa 0,0 l/m 0 min 0 min 0 W/m 9,7 km/h (2 Bft) 95,74 %
17.01.2019 05:48 5,2 C 4,4 C 3,9 C 96 % 1000,1 hPa 0,0 l/m 0 min 0 min 0 W/m 3,2 km/h (1 Bft) 97,87 %
17.01.2019 05:50 5,2 C 4,4 C 3,9 C 96 % 1000,1 hPa 0,0 l/m 0 min 0 min 0 W/m 9,7 km/h (2 Bft) 97,83 %
17.01.2019 05:52 5,2 C 4,4 C 3,9 C 96 % 1000,1 hPa 0,0 l/m 0 min 0 min 0 W/m 9,7 km/h (2 Bft) 97,87 %
17.01.2019 05:54 5,2 C 4,4 C 3,9 C 96 % 1000,2 hPa 0,0 l/m 0 min 0 min 0 W/m 9,7 km/h (2 Bft) 100,00 %
17.01.2019 05:56 5,2 C 4,4 C 3,9 C 96 % 1000,2 hPa 0,0 l/m 0 min 0 min 0 W/m 6,4 km/h (2 Bft) 97,87 %
17.01.2019 05:58 5,2 C 4,4 C 3,9 C 96 % 1000,1 hPa 0,0 l/m 0 min 0 min 0 W/m 6,4 km/h (2 Bft) 95,74 %
17.01.2019 06:00 5,2 C 4,4 C 3,9 C 96 % 1000,2 hPa 0,0 l/m 0 min 0 min 0 W/m 6,4 km/h (2 Bft) 97,87 %
17.01.2019 06:02 5,2 C 4,4 C 3,9 C 96 % 1000,2 hPa 0,0 l/m 0 min 0 min 0 W/m 3,2 km/h (1 Bft) 95,65 %
17.01.2019 06:04 5,2 C 4,4 C 3,9 C 96 % 1000,1 hPa 0,0 l/m 0 min 0 min 0 W/m 9,7 km/h (2 Bft) 97,30 %
17.01.2019 06:08 5,2 C 4,4 C 3,9 C 96 % 1000,1 hPa 0,0 l/m 0 min 0 min 0 W/m 9,7 km/h (2 Bft) 97,87 %
17.01.2019 06:10 5,2 C 4,4 C 3,9 C 96 % 1000,1 hPa 0,0 l/m 0 min 0 min 0 W/m 3,2 km/h (1 Bft) 97,87 %
17.01.2019 06:12 5,2 C 4,4 C 3,9 C 96 % 1000,1 hPa 0,0 l/m 0 min 0 min 0 W/m 3,2 km/h (1 Bft) 97,87 %
17.01.2019 06:14 5,2 C 4,4 C 3,9 C 96 % 1000,2 hPa 0,0 l/m 0 min 0 min 0 W/m 3,2 km/h (1 Bft) 97,87 %
17.01.2019 06:16 5,2 C 4,4 C 3,9 C 96 % 1000,3 hPa 0,0 l/m 0 min 0 min 0 W/m 3,2 km/h (1 Bft) 97,87 %
17.01.2019 06:18 5,2 C 4,4 C 3,9 C 96 % 1000,3 hPa 0,0 l/m 0 min 0 min 0 W/m 6,4 km/h (2 Bft) 97,87 %
17.01.2019 06:20 5,2 C 4,4 C 3,9 C 96 % 1000,3 hPa 0,0 l/m 0 min 0 min 0 W/m 9,7 km/h (2 Bft) 95,74 %
17.01.2019 06:22 5,2 C 4,4 C 3,9 C 96 % 1000,3 hPa 0,0 l/m 0 min 0 min 0 W/m 6,4 km/h (2 Bft) 97,87 %
17.01.2019 06:24 5,2 C 4,4 C 3,9 C 96 % 1000,3 hPa 0,0 l/m 0 min 0 min 0 W/m 9,7 km/h (2 Bft) 97,87 %
17.01.2019 06:26 5,2 C 4,4 C 3,9 C 96 % 1000,3 hPa 0,0 l/m 0 min 0 min 0 W/m 9,7 km/h (2 Bft) 97,87 %
17.01.2019 06:28 5,2 C 4,4 C 3,9 C 96 % 1000,3 hPa 0,0 l/m 0 min 0 min 0 W/m 16,1 km/h (3 Bft) 97,83 %
17.01.2019 06:30 5,2 C 4,4 C 3,9 C 96 % 1000,3 hPa 0,0 l/m 0 min 0 min 0 W/m 9,7 km/h (2 Bft) 100,00 %
17.01.2019 06:32 5,2 C 4,4 C 3,9 C 96 % 1000,3 hPa 0,0 l/m 0 min 0 min 0 W/m 3,2 km/h (1 Bft) 100,00 %
17.01.2019 06:34 5,2 C 4,4 C 3,9 C 96 % 1000,2 hPa 0,0 l/m 0 min 0 min 0 W/m 12,9 km/h (3 Bft) 100,00 %
17.01.2019 06:36 5,2 C 4,4 C 3,9 C 96 % 1000,3 hPa 0,0 l/m 0 min 0 min 0 W/m 9,7 km/h (2 Bft) 100,00 %
17.01.2019 06:38 5,2 C 4,4 C 3,9 C 96 % 1000,3 hPa 0,0 l/m 0 min 0 min 0 W/m 3,2 km/h (1 Bft) 100,00 %
17.01.2019 06:40 5,2 C 4,4 C 3,9 C 96 % 1000,2 hPa 0,0 l/m 0 min 0 min 0 W/m 6,4 km/h (2 Bft) 100,00 %
17.01.2019 06:42 5,2 C 4,4 C 3,9 C 96 % 1000,3 hPa 0,0 l/m 0 min 0 min 0 W/m 6,4 km/h (2 Bft) 100,00 %
17.01.2019 06:44 5,1 C 4,4 C 3,9 C 96 % 1000,2 hPa 0,0 l/m 0 min 0 min 0 W/m 6,4 km/h (2 Bft) 100,00 %
17.01.2019 06:46 5,2 C 4,4 C 3,9 C 96 % 1000,3 hPa 0,0 l/m 0 min 0 min 0 W/m 6,4 km/h (2 Bft) 100,00 %
17.01.2019 06:48 5,1 C 4,4 C 3,9 C 96 % 1000,3 hPa 0,0 l/m 0 min 0 min 0 W/m 6,4 km/h (2 Bft) 100,00 %
17.01.2019 06:50 5,1 C 4,4 C 3,9 C 96 % 1000,4 hPa 0,0 l/m 0 min 0 min 0 W/m 6,4 km/h (2 Bft) 97,83 %
17.01.2019 06:52 5,1 C 4,4 C 3,9 C 96 % 1000,3 hPa 0,0 l/m 0 min 0 min 0 W/m 12,9 km/h (3 Bft) 100,00 %
17.01.2019 06:54 5,1 C 4,4 C 3,9 C 96 % 1000,2 hPa 0,0 l/m 0 min 0 min 0 W/m 3,2 km/h (1 Bft) 95,74 %
17.01.2019 06:56 5,1 C 4,4 C 3,9 C 96 % 1000,2 hPa 0,0 l/m 0 min 0 min 0 W/m 3,2 km/h (1 Bft) 97,87 %
17.01.2019 06:58 5,1 C 4,4 C 3,9 C 96 % 1000,3 hPa 0,0 l/m 0 min 0 min 0 W/m 3,2 km/h (1 Bft) 100,00 %
17.01.2019 07:00 5,1 C 4,4 C 3,9 C 96 % 1000,3 hPa 0,0 l/m 0 min 0 min 0 W/m 3,2 km/h (1 Bft) 100,00 %
17.01.2019 07:02 5,1 C 4,4 C 3,9 C 96 % 1000,2 hPa 0,0 l/m 0 min 0 min 0 W/m 9,7 km/h (2 Bft) 97,83 %
17.01.2019 07:04 5,1 C 4,4 C 3,9 C 96 % 1000,2 hPa 0,0 l/m 0 min 0 min 0 W/m 12,9 km/h (3 Bft) 100,00 %
17.01.2019 07:06 5,1 C 4,4 C 3,9 C 96 % 1000,1 hPa 0,0 l/m 0 min 0 min 0 W/m 3,2 km/h (1 Bft) 97,87 %
17.01.2019 07:08 5,1 C 4,4 C 3,9 C 96 % 1000,1 hPa 0,0 l/m 0 min 0 min 0 W/m 3,2 km/h (1 Bft) 97,87 %
17.01.2019 07:10 5,1 C 4,4 C 3,9 C 96 % 1000,1 hPa 0,0 l/m 0 min 0 min 0 W/m 6,4 km/h (2 Bft) 100,00 %
17.01.2019 07:12 5,1 C 4,4 C 3,9 C 96 % 1000,1 hPa 0,0 l/m 0 min 0 min 0 W/m 6,4 km/h (2 Bft) 100,00 %
17.01.2019 07:14 5,1 C 4,4 C 3,9 C 96 % 1000,1 hPa 0,0 l/m 0 min 0 min 0 W/m 9,7 km/h (2 Bft) 100,00 %
17.01.2019 07:16 5,1 C 4,4 C 3,9 C 96 % 1000,1 hPa 0,0 l/m 0 min 0 min 0 W/m 0,0 km/h (0 Bft) 97,87 %
17.01.2019 07:18 5,1 C 4,4 C 3,9 C 96 % 1000,1 hPa 0,0 l/m 0 min 0 min 0 W/m 9,7 km/h (2 Bft) 100,00 %
17.01.2019 07:20 5,1 C 4,4 C 3,9 C 96 % 1000,1 hPa 0,0 l/m 0 min 0 min 0 W/m 6,4 km/h (2 Bft) 100,00 %
17.01.2019 07:22 5,1 C 4,4 C 3,9 C 96 % 1000,1 hPa 0,0 l/m 0 min 0 min 0 W/m 9,7 km/h (2 Bft) 100,00 %
17.01.2019 07:24 5,1 C 4,4 C 3,9 C 96 % 1000,2 hPa 0,0 l/m 0 min 0 min 0 W/m 6,4 km/h (2 Bft) 97,87 %
17.01.2019 07:26 5,1 C 4,4 C 3,9 C 96 % 1000,1 hPa 0,0 l/m 0 min 0 min 0 W/m 9,7 km/h (2 Bft) 97,87 %
17.01.2019 07:28 5,1 C 4,4 C 3,9 C 96 % 1000,0 hPa 0,0 l/m 0 min 0 min 0 W/m 9,7 km/h (2 Bft) 97,87 %
17.01.2019 07:30 5,1 C 4,4 C 3,9 C 96 % 1000,0 hPa 0,0 l/m 0 min 0 min 0 W/m 6,4 km/h (2 Bft) 100,00 %
17.01.2019 07:32 5,1 C 4,4 C 3,9 C 95 % 1000,0 hPa 0,0 l/m 0 min 0 min 0 W/m 9,7 km/h (2 Bft) 100,00 %
17.01.2019 07:34 5,1 C 4,4 C 3,9 C 95 % 1000,0 hPa 0,0 l/m 0 min 0 min 0 W/m 3,2 km/h (1 Bft) 97,87 %
17.01.2019 07:36 5,1 C 4,4 C 3,9 C 95 % 1000,0 hPa 0,0 l/m 0 min 0 min 0 W/m 9,7 km/h (2 Bft) 97,83 %
17.01.2019 07:38 5,1 C 4,4 C 3,9 C 95 % 1000,0 hPa 0,0 l/m 0 min 0 min 0 W/m 16,1 km/h (3 Bft) 97,87 %
17.01.2019 07:40 5,1 C 4,4 C 3,9 C 95 % 1000,0 hPa 0,0 l/m 0 min 0 min 0 W/m 9,7 km/h (2 Bft) 100,00 %
17.01.2019 07:42 5,1 C 4,4 C 3,9 C 95 % 1000,0 hPa 0,0 l/m 0 min 0 min 0 W/m 6,4 km/h (2 Bft) 97,87 %
17.01.2019 07:44 5,1 C 4,4 C 3,9 C 95 % 1000,0 hPa 0,0 l/m 0 min 0 min 0 W/m 12,9 km/h (3 Bft) 97,87 %
17.01.2019 07:46 5,1 C 4,4 C 3,9 C 95 % 1000,1 hPa 0,0 l/m 0 min 0 min 0 W/m 12,9 km/h (3 Bft) 95,65 %
17.01.2019 07:48 5,1 C 4,4 C 3,9 C 95 % 1000,1 hPa 0,0 l/m 0 min 0 min 0 W/m 6,4 km/h (2 Bft) 93,62 %
17.01.2019 07:50 5,1 C 4,4 C 3,9 C 95 % 1000,0 hPa 0,0 l/m 0 min 0 min 0 W/m 22,5 km/h (4 Bft) 95,74 %
17.01.2019 07:52 5,1 C 4,4 C 3,9 C 95 % 1000,0 hPa 0,0 l/m 0 min 0 min 0 W/m 9,7 km/h (2 Bft) 93,62 %
17.01.2019 07:54 5,0 C 4,4 C 3,9 C 95 % 1000,1 hPa 0,0 l/m 0 min 0 min 0 W/m 9,7 km/h (2 Bft) 95,74 %
17.01.2019 07:56 5,0 C 4,4 C 3,9 C 95 % 1000,1 hPa 0,0 l/m 0 min 0 min 0 W/m 16,1 km/h (3 Bft) 95,74 %
17.01.2019 07:58 5,0 C 4,4 C 3,9 C 95 % 1000,0 hPa 0,0 l/m 0 min 0 min 0 W/m 12,9 km/h (3 Bft) 95,65 %
17.01.2019 08:00 4,9 C 4,4 C 3,3 C 95 % 1000,0 hPa 0,0 l/m 0 min 0 min 0 W/m 9,7 km/h (2 Bft) 95,74 %
17.01.2019 08:02 4,9 C 4,4 C 3,3 C 95 % 1000,0 hPa 0,0 l/m 0 min 0 min 0 W/m 6,4 km/h (2 Bft) 95,74 %
17.01.2019 08:04 4,9 C 4,4 C 3,3 C 95 % 1000,1 hPa 0,0 l/m 0 min 0 min 0 W/m 6,4 km/h (2 Bft) 95,74 %
17.01.2019 08:06 4,9 C 4,4 C 3,3 C 95 % 1000,0 hPa 0,0 l/m 0 min 0 min 0 W/m 9,7 km/h (2 Bft) 95,74 %
17.01.2019 08:08 4,9 C 4,4 C 3,3 C 95 % 1000,0 hPa 0,0 l/m 0 min 0 min 0 W/m 16,1 km/h (3 Bft) 95,74 %
17.01.2019 08:10 4,9 C 4,4 C 3,3 C 95 % 1000,0 hPa 0,0 l/m 0 min 0 min 0 W/m 12,9 km/h (3 Bft) 95,65 %
17.01.2019 08:12 4,9 C 4,4 C 3,3 C 95 % 1000,0 hPa 0,0 l/m 0 min 0 min 0 W/m 19,3 km/h (3 Bft) 93,62 %
17.01.2019 08:14 4,8 C 4,4 C 3,3 C 95 % 1000,0 hPa 0,0 l/m 0 min 0 min 0 W/m 16,1 km/h (3 Bft) 95,74 %
17.01.2019 08:16 4,8 C 4,4 C 3,3 C 95 % 1000,0 hPa 0,0 l/m 0 min 0 min 0 W/m 6,4 km/h (2 Bft) 95,74 %
17.01.2019 08:18 4,8 C 4,4 C 3,3 C 94 % 1000,0 hPa 0,0 l/m 0 min 0 min 0 W/m 16,1 km/h (3 Bft) 95,74 %
17.01.2019 08:20 4,8 C 4,4 C 3,3 C 94 % 1000,0 hPa 0,0 l/m 0 min 0 min 0 W/m 9,7 km/h (2 Bft) 95,74 %
17.01.2019 08:22 4,8 C 4,4 C 3,3 C 94 % 1000,0 hPa 0,0 l/m 0 min 0 min 0 W/m 9,7 km/h (2 Bft) 95,65 %
17.01.2019 08:24 4,8 C 4,4 C 3,3 C 94 % 1000,1 hPa 0,0 l/m 0 min 0 min 0 W/m 9,7 km/h (2 Bft) 95,74 %
17.01.2019 08:26 4,8 C 4,4 C 3,3 C 94 % 1000,0 hPa 0,0 l/m 0 min 0 min 0 W/m 16,1 km/h (3 Bft) 93,62 %
17.01.2019 08:28 4,8 C 4,4 C 3,3 C 94 % 1000,0 hPa 0,0 l/m 0 min 0 min 0 W/m 6,4 km/h (2 Bft) 93,62 %
17.01.2019 08:30 4,8 C 4,4 C 3,3 C 94 % 1000,1 hPa 0,0 l/m 0 min 0 min 0 W/m 9,7 km/h (2 Bft) 95,74 %
17.01.2019 08:32 4,8 C 4,4 C 3,3 C 94 % 1000,1 hPa 0,0 l/m 0 min 0 min 0 W/m 16,1 km/h (3 Bft) 91,30 %
17.01.2019 08:34 4,8 C 4,4 C 3,3 C 94 % 1000,0 hPa 0,0 l/m 0 min 0 min 0 W/m 9,7 km/h (2 Bft) 93,62 %
17.01.2019 08:36 4,8 C 4,4 C 3,3 C 94 % 1000,0 hPa 0,0 l/m 0 min 0 min 0 W/m 6,4 km/h (2 Bft) 93,62 %
17.01.2019 08:38 4,8 C 4,4 C 3,3 C 94 % 1000,0 hPa 0,0 l/m 0 min 0 min 0 W/m 9,7 km/h (2 Bft) 95,74 %
17.01.2019 08:40 4,8 C 4,4 C 3,3 C 94 % 1000,1 hPa 0,0 l/m 0 min 0 min 0 W/m 9,7 km/h (2 Bft) 95,74 %
17.01.2019 08:42 4,8 C 4,4 C 3,3 C 94 % 1000,0 hPa 0,0 l/m 0 min 0 min 2 W/m 9,7 km/h (2 Bft) 95,74 %
17.01.2019 08:44 4,8 C 4,4 C 3,3 C 94 % 1000,0 hPa 0,0 l/m 0 min 0 min 5 W/m 12,9 km/h (3 Bft) 97,87 %
17.01.2019 08:46 4,8 C 4,4 C 3,3 C 94 % 1000,1 hPa 0,0 l/m 0 min 0 min 5 W/m 9,7 km/h (2 Bft) 95,65 %
17.01.2019 08:48 4,8 C 4,4 C 3,3 C 94 % 1000,0 hPa 0,0 l/m 0 min 0 min 6 W/m 6,4 km/h (2 Bft) 97,87 %
17.01.2019 08:50 4,8 C 4,4 C 3,9 C 94 % 1000,1 hPa 0,0 l/m 0 min 0 min 7 W/m 6,4 km/h (2 Bft) 95,74 %
17.01.2019 08:52 4,8 C 4,4 C 3,9 C 94 % 1000,1 hPa 0,0 l/m 0 min 0 min 11 W/m 16,1 km/h (3 Bft) 95,74 %
17.01.2019 08:54 4,8 C 4,4 C 3,9 C 94 % 1000,1 hPa 0,0 l/m 0 min 0 min 16 W/m 6,4 km/h (2 Bft) 97,87 %
17.01.2019 08:56 4,8 C 4,4 C 3,9 C 94 % 1000,1 hPa 0,0 l/m 0 min 0 min 19 W/m 9,7 km/h (2 Bft) 97,83 %
17.01.2019 08:58 4,8 C 4,4 C 3,9 C 93 % 1000,1 hPa 0,0 l/m 0 min 0 min 19 W/m 3,2 km/h (1 Bft) 95,74 %
17.01.2019 09:00 4,9 C 4,4 C 3,9 C 93 % 1000,1 hPa 0,0 l/m 0 min 0 min 16 W/m 19,3 km/h (3 Bft) 95,74 %
17.01.2019 09:02 4,9 C 4,4 C 3,9 C 93 % 1000,1 hPa 0,0 l/m 0 min 0 min 13 W/m 16,1 km/h (3 Bft) 91,67 %
17.01.2019 09:04 4,9 C 4,4 C 3,9 C 93 % 1000,1 hPa 0,0 l/m 0 min 0 min 11 W/m 12,9 km/h (3 Bft) 97,87 %
17.01.2019 09:06 4,9 C 4,4 C 3,9 C 93 % 1000,1 hPa 0,0 l/m 0 min 0 min 10 W/m 9,7 km/h (2 Bft) 97,87 %
17.01.2019 09:08 4,9 C 4,4 C 3,9 C 93 % 1000,1 hPa 0,0 l/m 0 min 0 min 11 W/m 12,9 km/h (3 Bft) 97,83 %
17.01.2019 09:10 5,0 C 4,4 C 3,9 C 93 % 1000,2 hPa 0,0 l/m 0 min 0 min 13 W/m 16,1 km/h (3 Bft) 97,87 %
17.01.2019 09:12 5,0 C 4,4 C 3,9 C 93 % 1000,2 hPa 0,0 l/m 0 min 0 min 16 W/m 12,9 km/h (3 Bft) 97,87 %
17.01.2019 09:14 5,0 C 4,4 C 3,9 C 93 % 1000,2 hPa 0,0 l/m 0 min 0 min 21 W/m 16,1 km/h (3 Bft) 100,00 %
17.01.2019 09:16 5,1 C 4,4 C 3,9 C 93 % 1000,2 hPa 0,0 l/m 0 min 0 min 18 W/m 22,5 km/h (4 Bft) 100,00 %
17.01.2019 09:18 5,1 C 4,4 C 3,9 C 93 % 1000,2 hPa 0,0 l/m 0 min 0 min 17 W/m 19,3 km/h (3 Bft) 97,87 %
17.01.2019 09:20 5,1 C 4,4 C 3,9 C 93 % 1000,1 hPa 0,0 l/m 0 min 0 min 19 W/m 16,1 km/h (3 Bft) 100,00 %
17.01.2019 09:22 5,1 C 4,4 C 3,9 C 93 % 1000,1 hPa 0,0 l/m 0 min 0 min 19 W/m 19,3 km/h (3 Bft) 97,83 %
17.01.2019 09:24 5,1 C 4,4 C 3,9 C 93 % 1000,1 hPa 0,0 l/m 0 min 0 min 20 W/m 19,3 km/h (3 Bft) 100,00 %
17.01.2019 09:26 5,1 C 4,4 C 3,9 C 93 % 999,9 hPa 0,0 l/m 0 min 0 min 22 W/m 29,0 km/h (5 Bft) 97,87 %
17.01.2019 09:28 5,1 C 4,4 C 3,9 C 93 % 999,9 hPa 0,0 l/m 0 min 0 min 25 W/m 19,3 km/h (3 Bft) 100,00 %
17.01.2019 09:30 5,1 C 4,4 C 3,9 C 93 % 999,9 hPa 0,0 l/m 0 min 0 min 30 W/m 12,9 km/h (3 Bft) 97,83 %
17.01.2019 09:32 5,1 C 4,4 C 3,9 C 93 % 999,9 hPa 0,2 l/m 0 min 0 min 38 W/m 19,3 km/h (3 Bft) 100,00 %
17.01.2019 09:34 5,1 C 4,4 C 3,9 C 93 % 999,9 hPa 0,0 l/m 0 min 0 min 49 W/m 16,1 km/h (3 Bft) 100,00 %
17.01.2019 09:36 5,1 C 5,0 C 3,9 C 93 % 1000,0 hPa 0,0 l/m 0 min 0 min 57 W/m 12,9 km/h (3 Bft) 100,00 %
17.01.2019 09:38 5,1 C 5,0 C 3,9 C 93 % 1000,0 hPa 0,0 l/m 0 min 0 min 55 W/m 12,9 km/h (3 Bft) 100,00 %
17.01.2019 09:40 5,1 C 5,0 C 3,9 C 93 % 1000,0 hPa 0,0 l/m 0 min 0 min 52 W/m 12,9 km/h (3 Bft) 100,00 %
17.01.2019 09:42 5,1 C 5,0 C 3,9 C 93 % 1000,0 hPa 0,0 l/m 0 min 0 min 47 W/m 12,9 km/h (3 Bft) 100,00 %
17.01.2019 09:44 5,1 C 5,0 C 4,4 C 93 % 1000,0 hPa 0,0 l/m 0 min 0 min 45 W/m 19,3 km/h (3 Bft) 100,00 %
17.01.2019 09:46 5,1 C 5,0 C 4,4 C 93 % 1000,0 hPa 0,0 l/m 0 min 0 min 44 W/m 9,7 km/h (2 Bft) 97,87 %
17.01.2019 09:48 5,1 C 5,0 C 4,4 C 93 % 1000,1 hPa 0,0 l/m 0 min 0 min 47 W/m 19,3 km/h (3 Bft) 100,00 %
17.01.2019 09:50 5,1 C 5,0 C 4,4 C 93 % 1000,0 hPa 0,0 l/m 0 min 0 min 51 W/m 19,3 km/h (3 Bft) 100,00 %
17.01.2019 09:52 5,1 C 5,0 C 4,4 C 93 % 1000,0 hPa 0,0 l/m 0 min 0 min 56 W/m 16,1 km/h (3 Bft) 100,00 %
17.01.2019 09:54 5,1 C 5,0 C 4,4 C 93 % 1000,0 hPa 0,0 l/m 0 min 0 min 52 W/m 12,9 km/h (3 Bft) 100,00 %
17.01.2019 09:56 5,1 C 5,0 C 4,4 C 93 % 1000,0 hPa 0,0 l/m 0 min 0 min 46 W/m 19,3 km/h (3 Bft) 97,87 %
17.01.2019 09:58 5,1 C 5,0 C 4,4 C 93 % 1000,0 hPa 0,0 l/m 0 min 0 min 42 W/m 22,5 km/h (4 Bft) 97,87 %
17.01.2019 10:00 5,1 C 5,0 C 4,4 C 93 % 1000,0 hPa 0,0 l/m 0 min 0 min 43 W/m 19,3 km/h (3 Bft) 100,00 %
17.01.2019 10:02 5,1 C 5,0 C 4,4 C 93 % 999,9 hPa 0,0 l/m 0 min 0 min 47 W/m 16,1 km/h (3 Bft) 100,00 %
17.01.2019 10:04 5,2 C 5,0 C 4,4 C 93 % 1000,0 hPa 0,0 l/m 0 min 0 min 50 W/m 16,1 km/h (3 Bft) 100,00 %
17.01.2019 10:06 5,2 C 5,0 C 4,4 C 93 % 1000,0 hPa 0,0 l/m 0 min 0 min 58 W/m 19,3 km/h (3 Bft) 100,00 %
17.01.2019 10:08 5,2 C 5,0 C 4,4 C 93 % 1000,0 hPa 0,0 l/m 0 min 0 min 63 W/m 12,9 km/h (3 Bft) 97,87 %
17.01.2019 10:10 5,2 C 5,0 C 4,4 C 93 % 999,9 hPa 0,0 l/m 0 min 0 min 56 W/m 19,3 km/h (3 Bft) 100,00 %
17.01.2019 10:12 5,2 C 5,0 C 4,4 C 93 % 999,8 hPa 0,0 l/m 0 min 0 min 45 W/m 16,1 km/h (3 Bft) 97,87 %
17.01.2019 10:14 5,2 C 5,0 C 4,4 C 93 % 999,7 hPa 0,0 l/m 0 min 0 min 37 W/m 16,1 km/h (3 Bft) 97,87 %
17.01.2019 10:16 5,2 C 5,0 C 4,4 C 93 % 999,7 hPa 0,0 l/m 0 min 0 min 31 W/m 12,9 km/h (3 Bft) 100,00 %
17.01.2019 10:18 5,2 C 5,0 C 4,4 C 93 % 999,6 hPa 0,0 l/m 0 min 0 min 26 W/m 12,9 km/h (3 Bft) 100,00 %
17.01.2019 10:20 5,2 C 5,0 C 4,4 C 92 % 999,6 hPa 0,0 l/m 0 min 0 min 25 W/m 12,9 km/h (3 Bft) 97,87 %
17.01.2019 10:22 5,2 C 5,0 C 4,4 C 92 % 999,6 hPa 0,0 l/m 0 min 0 min 20 W/m 9,7 km/h (2 Bft) 97,87 %
17.01.2019 10:24 5,3 C 5,0 C 4,4 C 92 % 999,6 hPa 0,0 l/m 0 min 0 min 15 W/m 12,9 km/h (3 Bft) 97,87 %
17.01.2019 10:26 5,3 C 4,4 C 4,4 C 92 % 999,5 hPa 0,0 l/m 0 min 2 min 13 W/m 12,9 km/h (3 Bft) 100,00 %
17.01.2019 10:28 5,3 C 4,4 C 3,9 C 92 % 999,6 hPa 0,0 l/m 0 min 2 min 16 W/m 16,1 km/h (3 Bft) 100,00 %
17.01.2019 10:30 5,3 C 4,4 C 3,9 C 92 % 999,6 hPa 0,0 l/m 0 min 2 min 24 W/m 16,1 km/h (3 Bft) 100,00 %
17.01.2019 10:32 5,3 C 4,4 C 3,9 C 92 % 999,6 hPa 0,0 l/m 0 min 2 min 30 W/m 19,3 km/h (3 Bft) 95,74 %
17.01.2019 10:34 5,3 C 3,9 C 3,9 C 92 % 999,6 hPa 0,0 l/m 0 min 2 min 28 W/m 25,7 km/h (4 Bft) 97,87 %
17.01.2019 10:36 5,3 C 3,9 C 3,9 C 92 % 999,5 hPa 0,0 l/m 0 min 2 min 23 W/m 16,1 km/h (3 Bft) 95,74 %
17.01.2019 10:38 5,3 C 3,9 C 3,3 C 92 % 999,6 hPa 0,0 l/m 0 min 2 min 14 W/m 16,1 km/h (3 Bft) 97,87 %
17.01.2019 10:40 5,3 C 3,9 C 3,3 C 92 % 999,6 hPa 0,2 l/m 0 min 2 min 12 W/m 22,5 km/h (4 Bft) 97,87 %
17.01.2019 10:42 5,3 C 3,9 C 3,3 C 92 % 999,6 hPa 0,2 l/m 0 min 2 min 14 W/m 25,7 km/h (4 Bft) 97,83 %
17.01.2019 10:44 5,2 C 3,9 C 3,3 C 92 % 999,5 hPa 0,2 l/m 0 min 2 min 16 W/m 25,7 km/h (4 Bft) 97,87 %
17.01.2019 10:46 5,2 C 3,9 C 3,3 C 93 % 999,5 hPa 0,2 l/m 0 min 2 min 18 W/m 22,5 km/h (4 Bft) 97,87 %
17.01.2019 10:48 5,2 C 3,9 C 3,3 C 93 % 999,4 hPa 0,0 l/m 0 min 2 min 22 W/m 22,5 km/h (4 Bft) 97,87 %
17.01.2019 10:50 5,2 C 3,9 C 3,3 C 93 % 999,3 hPa 0,0 l/m 0 min 2 min 31 W/m 38,6 km/h (5 Bft) 97,87 %
17.01.2019 10:52 5,2 C 3,9 C 3,3 C 93 % 999,3 hPa 0,0 l/m 0 min 2 min 38 W/m 22,5 km/h (4 Bft) 93,48 %
17.01.2019 10:54 5,2 C 3,9 C 3,3 C 93 % 999,3 hPa 0,0 l/m 0 min 2 min 38 W/m 41,8 km/h (6 Bft) 95,74 %
17.01.2019 10:56 5,1 C 3,9 C 3,3 C 93 % 999,3 hPa 0,2 l/m 0 min 2 min 34 W/m 25,7 km/h (4 Bft) 97,87 %
17.01.2019 10:58 5,1 C 3,9 C 3,3 C 93 % 999,3 hPa 0,0 l/m 0 min 2 min 25 W/m 22,5 km/h (4 Bft) 95,74 %
17.01.2019 11:00 5,1 C 3,9 C 3,3 C 93 % 999,3 hPa 0,2 l/m 0 min 2 min 18 W/m 9,7 km/h (2 Bft) 97,87 %
17.01.2019 11:02 5,1 C 3,9 C 3,3 C 93 % 999,4 hPa 0,0 l/m 0 min 2 min 12 W/m 12,9 km/h (3 Bft) 93,62 %
17.01.2019 11:04 5,1 C 3,9 C 3,3 C 93 % 999,4 hPa 0,4 l/m 0 min 2 min 10 W/m 19,3 km/h (3 Bft) 84,78 %
17.01.2019 11:06 5,1 C 3,9 C 3,3 C 93 % 999,4 hPa 0,0 l/m 0 min 2 min 9 W/m 16,1 km/h (3 Bft) 87,23 %
17.01.2019 11:08 5,0 C 3,9 C 3,3 C 93 % 999,4 hPa 0,2 l/m 0 min 2 min 9 W/m 38,6 km/h (5 Bft) 70,21 %
17.01.2019 11:10 5,0 C 3,9 C 3,3 C 94 % 999,5 hPa 0,2 l/m 0 min 2 min 11 W/m 12,9 km/h (3 Bft) 85,11 %
17.01.2019 11:12 4,9 C 3,3 C 3,3 C 93 % 999,5 hPa 0,0 l/m 0 min 2 min 12 W/m 22,5 km/h (4 Bft) 93,62 %
17.01.2019 11:14 4,9 C 3,3 C 3,3 C 93 % 999,5 hPa 0,2 l/m 0 min 2 min 13 W/m 12,9 km/h (3 Bft) 68,09 %
17.01.2019 11:16 4,9 C 3,3 C 3,3 C 93 % 999,5 hPa 0,2 l/m 0 min 2 min 16 W/m 12,9 km/h (3 Bft) 93,48 %
17.01.2019 11:18 4,9 C 3,3 C 3,3 C 94 % 999,5 hPa 0,0 l/m 0 min 2 min 18 W/m 9,7 km/h (2 Bft) 91,49 %
17.01.2019 11:20 4,8 C 3,3 C 2,8 C 94 % 999,4 hPa 0,2 l/m 0 min 2 min 22 W/m 12,9 km/h (3 Bft) 78,72 %
17.01.2019 11:22 4,8 C 3,3 C 2,8 C 94 % 999,5 hPa 0,2 l/m 0 min 2 min 30 W/m 12,9 km/h (3 Bft) 93,62 %
17.01.2019 11:24 4,7 C 3,3 C 2,8 C 94 % 999,5 hPa 0,0 l/m 0 min 2 min 37 W/m 19,3 km/h (3 Bft) 95,74 %
17.01.2019 11:26 4,7 C 3,3 C 2,8 C 94 % 999,4 hPa 0,0 l/m 0 min 2 min 33 W/m 16,1 km/h (3 Bft) 93,62 %
17.01.2019 11:28 4,7 C 3,3 C 2,8 C 94 % 999,4 hPa 0,0 l/m 0 min 2 min 28 W/m 12,9 km/h (3 Bft) 93,48 %
17.01.2019 11:30 4,6 C 3,3 C 2,8 C 94 % 999,4 hPa 0,0 l/m 0 min 2 min 29 W/m 19,3 km/h (3 Bft) 95,74 %
17.01.2019 11:32 4,6 C 3,3 C 2,8 C 94 % 999,4 hPa 0,0 l/m 0 min 2 min 28 W/m 12,9 km/h (3 Bft) 91,49 %
17.01.2019 11:34 4,6 C 3,3 C 2,8 C 94 % 999,5 hPa 0,0 l/m 0 min 2 min 25 W/m 12,9 km/h (3 Bft) 95,74 %
17.01.2019 11:36 4,6 C 3,3 C 2,8 C 94 % 999,6 hPa 0,2 l/m 0 min 2 min 26 W/m 9,7 km/h (2 Bft) 91,49 %
17.01.2019 11:38 4,5 C 3,3 C 2,8 C 94 % 999,4 hPa 0,0 l/m 0 min 2 min 25 W/m 9,7 km/h (2 Bft) 93,62 %
17.01.2019 11:40 4,4 C 3,3 C 2,8 C 94 % 999,5 hPa 0,2 l/m 0 min 2 min 38 W/m 19,3 km/h (3 Bft) 94,59 %
17.01.2019 11:42 4,4 C 3,3 C 2,8 C 94 % 999,7 hPa 0,0 l/m 0 min 2 min 51 W/m 16,1 km/h (3 Bft) 95,65 %
17.01.2019 11:44 4,4 C 3,3 C 3,3 C 94 % 999,7 hPa 0,0 l/m 0 min 2 min 68 W/m 25,7 km/h (4 Bft) 91,49 %
17.01.2019 11:46 4,4 C 3,3 C 3,3 C 94 % 999,6 hPa 0,0 l/m 0 min 2 min 84 W/m 9,7 km/h (2 Bft) 93,62 %
17.01.2019 11:48 4,4 C 3,9 C 3,3 C 94 % 999,6 hPa 0,0 l/m 0 min 2 min 85 W/m 9,7 km/h (2 Bft) 85,11 %
17.01.2019 11:50 4,4 C 3,3 C 3,3 C 95 % 999,6 hPa 0,0 l/m 0 min 2 min 78 W/m 9,7 km/h (2 Bft) 95,74 %
17.01.2019 11:52 4,4 C 3,3 C 3,3 C 95 % 999,5 hPa 0,0 l/m 0 min 0 min 59 W/m 12,9 km/h (3 Bft) 87,23 %
17.01.2019 11:54 4,4 C 3,3 C 3,3 C 95 % 999,5 hPa 0,0 l/m 0 min 2 min 54 W/m 25,7 km/h (4 Bft) 84,78 %
17.01.2019 11:56 4,4 C 3,3 C 2,8 C 95 % 999,3 hPa 0,0 l/m 0 min 2 min 64 W/m 19,3 km/h (3 Bft) 95,74 %
17.01.2019 11:58 4,3 C 3,3 C 2,8 C 95 % 999,5 hPa 0,0 l/m 0 min 2 min 57 W/m 9,7 km/h (2 Bft) 76,60 %
17.01.2019 12:00 4,3 C 3,3 C 3,3 C 95 % 999,5 hPa 0,0 l/m 0 min 2 min 50 W/m 12,9 km/h (3 Bft) 87,23 %
17.01.2019 12:02 4,3 C 3,3 C 2,8 C 95 % 999,6 hPa 0,0 l/m 0 min 2 min 44 W/m 19,3 km/h (3 Bft) 89,36 %
17.01.2019 12:04 4,3 C 3,3 C 2,8 C 95 % 999,6 hPa 0,2 l/m 0 min 2 min 42 W/m 12,9 km/h (3 Bft) 72,34 %
17.01.2019 12:08 4,3 C 3,3 C 3,3 C 95 % 999,5 hPa 0,0 l/m 0 min 4 min 43 W/m 16,1 km/h (3 Bft) 97,85 %
17.01.2019 12:10 4,3 C 3,3 C 3,3 C 95 % 999,5 hPa 0,0 l/m 0 min 2 min 53 W/m 9,7 km/h (2 Bft) 100,00 %
17.01.2019 12:12 4,3 C 3,3 C 3,3 C 95 % 999,5 hPa 0,0 l/m 0 min 2 min 57 W/m 12,9 km/h (3 Bft) 97,87 %
17.01.2019 12:14 4,3 C 3,3 C 3,3 C 95 % 999,5 hPa 0,0 l/m 0 min 0 min 52 W/m 12,9 km/h (3 Bft) 100,00 %
17.01.2019 12:16 4,3 C 3,3 C 3,3 C 95 % 999,5 hPa 0,0 l/m 0 min 2 min 47 W/m 12,9 km/h (3 Bft) 97,87 %
17.01.2019 12:18 4,3 C 3,3 C 3,3 C 95 % 999,4 hPa 0,0 l/m 0 min 2 min 41 W/m 16,1 km/h (3 Bft) 100,00 %
17.01.2019 12:20 4,3 C 3,3 C 3,3 C 95 % 999,5 hPa 0,0 l/m 0 min 2 min 32 W/m 12,9 km/h (3 Bft) 100,00 %
17.01.2019 12:22 4,3 C 3,3 C 3,3 C 95 % 999,5 hPa 0,0 l/m 0 min 2 min 28 W/m 16,1 km/h (3 Bft) 100,00 %
17.01.2019 12:24 4,4 C 3,3 C 3,3 C 95 % 999,5 hPa 0,2 l/m 0 min 2 min 28 W/m 12,9 km/h (3 Bft) 100,00 %
17.01.2019 12:26 4,4 C 3,3 C 3,3 C 95 % 999,5 hPa 0,0 l/m 0 min 0 min 30 W/m 32,2 km/h (5 Bft) 93,62 %
17.01.2019 12:28 4,3 C 3,3 C 3,3 C 95 % 999,5 hPa 0,0 l/m 0 min 0 min 31 W/m 19,3 km/h (3 Bft) 91,49 %
17.01.2019 12:30 4,4 C 3,3 C 3,3 C 96 % 999,5 hPa 0,0 l/m 0 min 0 min 35 W/m 19,3 km/h (3 Bft) 86,96 %
17.01.2019 12:32 4,4 C 3,3 C 3,3 C 96 % 999,5 hPa 0,0 l/m 0 min 0 min 43 W/m 16,1 km/h (3 Bft) 89,36 %
17.01.2019 12:34 4,3 C 3,3 C 3,3 C 96 % 999,5 hPa 0,0 l/m 0 min 2 min 35 W/m 22,5 km/h (4 Bft) 93,62 %
17.01.2019 12:36 4,3 C 3,3 C 3,3 C 96 % 999,5 hPa 0,0 l/m 0 min 2 min 41 W/m 22,5 km/h (4 Bft) 96,61 %
17.01.2019 12:38 4,3 C 3,3 C 3,3 C 96 % 999,5 hPa 0,0 l/m 0 min 2 min 40 W/m 12,9 km/h (3 Bft) 88,57 %
17.01.2019 12:40 4,3 C 3,3 C 3,3 C 96 % 999,6 hPa 0,0 l/m 0 min 0 min 48 W/m 12,9 km/h (3 Bft) 100,00 %
17.01.2019 12:42 4,3 C 3,3 C 3,3 C 96 % 999,6 hPa 0,0 l/m 0 min 2 min 61 W/m 22,5 km/h (4 Bft) 100,00 %
17.01.2019 12:44 4,3 C 3,3 C 3,3 C 96 % 999,7 hPa 0,0 l/m 0 min 2 min 53 W/m 22,5 km/h (4 Bft) 100,00 %
17.01.2019 12:46 4,2 C 3,3 C 2,8 C 96 % 999,7 hPa 0,0 l/m 0 min 0 min 72 W/m 25,7 km/h (4 Bft) 100,00 %
17.01.2019 12:48 4,2 C 3,3 C 2,8 C 96 % 999,7 hPa 0,0 l/m 0 min 0 min 78 W/m 25,7 km/h (4 Bft) 100,00 %
17.01.2019 12:50 4,1 C 3,3 C 2,8 C 96 % 999,7 hPa 0,0 l/m 0 min 0 min 74 W/m 16,1 km/h (3 Bft) 97,87 %
17.01.2019 12:52 4,1 C 3,3 C 2,8 C 96 % 999,7 hPa 0,0 l/m 0 min 0 min 70 W/m 19,3 km/h (3 Bft) 97,83 %
17.01.2019 12:54 4,0 C 3,3 C 2,8 C 96 % 999,7 hPa 0,0 l/m 0 min 0 min 66 W/m 16,1 km/h (3 Bft) 100,00 %
17.01.2019 12:56 3,9 C 2,8 C 2,8 C 96 % 999,7 hPa 0,0 l/m 0 min 0 min 75 W/m 16,1 km/h (3 Bft) 97,87 %
17.01.2019 12:58 3,9 C 3,3 C 2,8 C 96 % 999,9 hPa 0,0 l/m 0 min 0 min 81 W/m 12,9 km/h (3 Bft) 97,87 %
17.01.2019 13:00 3,9 C 3,3 C 2,8 C 96 % 999,9 hPa 0,0 l/m 0 min 0 min 76 W/m 9,7 km/h (2 Bft) 100,00 %
17.01.2019 13:02 3,8 C 3,3 C 2,8 C 96 % 1000,0 hPa 0,0 l/m 0 min 0 min 70 W/m 12,9 km/h (3 Bft) 100,00 %
17.01.2019 13:04 3,8 C 3,3 C 2,8 C 96 % 1000,0 hPa 0,0 l/m 0 min 0 min 64 W/m 9,7 km/h (2 Bft) 100,00 %
17.01.2019 13:06 3,8 C 3,3 C 2,8 C 96 % 1000,0 hPa 0,0 l/m 0 min 0 min 57 W/m 12,9 km/h (3 Bft) 100,00 %
17.01.2019 13:08 3,8 C 2,8 C 2,8 C 96 % 1000,0 hPa 0,0 l/m 0 min 0 min 46 W/m 22,5 km/h (4 Bft) 100,00 %
17.01.2019 13:10 3,8 C 2,8 C 2,8 C 96 % 1000,1 hPa 0,0 l/m 0 min 0 min 34 W/m 9,7 km/h (2 Bft) 100,00 %
17.01.2019 13:12 3,7 C 2,8 C 2,8 C 96 % 1000,1 hPa 0,0 l/m 0 min 0 min 32 W/m 9,7 km/h (2 Bft) 100,00 %
17.01.2019 13:14 3,7 C 2,8 C 2,8 C 96 % 1000,2 hPa 0,0 l/m 0 min 2 min 34 W/m 16,1 km/h (3 Bft) 97,83 %
17.01.2019 13:16 3,7 C 2,8 C 2,8 C 96 % 1000,2 hPa 0,0 l/m 0 min 2 min 40 W/m 6,4 km/h (2 Bft) 100,00 %
17.01.2019 13:18 3,7 C 2,8 C 2,8 C 96 % 1000,2 hPa 0,0 l/m 0 min 2 min 38 W/m 9,7 km/h (2 Bft) 97,87 %
17.01.2019 13:20 3,7 C 2,8 C 2,8 C 96 % 1000,2 hPa 0,0 l/m 0 min 2 min 46 W/m 6,4 km/h (2 Bft) 97,87 %
17.01.2019 13:22 3,7 C 2,8 C 2,8 C 96 % 1000,2 hPa 0,0 l/m 0 min 2 min 58 W/m 6,4 km/h (2 Bft) 95,74 %
17.01.2019 13:24 3,7 C 2,8 C 2,8 C 96 % 1000,2 hPa 0,0 l/m 0 min 2 min 63 W/m 9,7 km/h (2 Bft) 95,74 %
17.01.2019 13:26 3,7 C 2,8 C 2,8 C 96 % 1000,3 hPa 0,0 l/m 0 min 2 min 49 W/m 16,1 km/h (3 Bft) 95,65 %
17.01.2019 13:28 3,7 C 2,8 C 2,2 C 96 % 1000,2 hPa 0,0 l/m 0 min 2 min 43 W/m 19,3 km/h (3 Bft) 100,00 %
17.01.2019 13:30 3,6 C 2,8 C 2,8 C 96 % 1000,3 hPa 0,0 l/m 0 min 2 min 55 W/m 9,7 km/h (2 Bft) 97,87 %
17.01.2019 13:32 3,6 C 2,8 C 2,8 C 96 % 1000,3 hPa 0,0 l/m 0 min 2 min 69 W/m 9,7 km/h (2 Bft) 100,00 %
17.01.2019 13:34 3,6 C 2,8 C 2,8 C 96 % 1000,3 hPa 0,0 l/m 0 min 2 min 60 W/m 9,7 km/h (2 Bft) 95,74 %
17.01.2019 13:36 3,6 C 2,8 C 2,8 C 96 % 1000,3 hPa 0,0 l/m 0 min 2 min 72 W/m 19,3 km/h (3 Bft) 94,83 %
17.01.2019 13:38 3,6 C 2,8 C 2,8 C 96 % 1000,4 hPa 0,0 l/m 0 min 2 min 86 W/m 12,9 km/h (3 Bft) 97,22 %
17.01.2019 13:40 3,6 C 3,3 C 2,8 C 96 % 1000,3 hPa 0,0 l/m 0 min 2 min 107 W/m 12,9 km/h (3 Bft) 95,74 %
17.01.2019 13:42 3,6 C 3,3 C 2,8 C 96 % 1000,4 hPa 0,0 l/m 0 min 2 min 104 W/m 22,5 km/h (4 Bft) 93,62 %
17.01.2019 13:44 3,6 C 2,8 C 2,8 C 96 % 1000,4 hPa 0,2 l/m 0 min 2 min 84 W/m 22,5 km/h (4 Bft) 97,87 %
17.01.2019 13:46 3,6 C 2,8 C 2,8 C 96 % 1000,4 hPa 0,0 l/m 0 min 2 min 75 W/m 19,3 km/h (3 Bft) 95,74 %
17.01.2019 13:48 3,6 C 2,8 C 2,8 C 96 % 1000,5 hPa 0,0 l/m 0 min 2 min 56 W/m 16,1 km/h (3 Bft) 93,62 %
17.01.2019 13:50 3,6 C 2,8 C 2,2 C 96 % 1000,5 hPa 0,0 l/m 0 min 2 min 37 W/m 19,3 km/h (3 Bft) 93,48 %
17.01.2019 13:52 3,6 C 2,8 C 2,2 C 96 % 1000,5 hPa 0,0 l/m 0 min 2 min 39 W/m 12,9 km/h (3 Bft) 93,62 %
17.01.2019 13:54 3,6 C 2,8 C 2,2 C 96 % 1000,5 hPa 0,0 l/m 0 min 2 min 45 W/m 22,5 km/h (4 Bft) 95,74 %
17.01.2019 13:56 3,5 C 2,8 C 2,8 C 96 % 1000,4 hPa 0,0 l/m 0 min 2 min 53 W/m 25,7 km/h (4 Bft) 93,62 %
17.01.2019 13:58 3,5 C 2,8 C 2,8 C 96 % 1000,5 hPa 0,0 l/m 0 min 2 min 62 W/m 9,7 km/h (2 Bft) 93,62 %
17.01.2019 14:00 3,5 C 2,8 C 2,8 C 96 % 1000,6 hPa 0,0 l/m 0 min 2 min 52 W/m 16,1 km/h (3 Bft) 95,74 %
17.01.2019 14:02 3,6 C 2,8 C 2,8 C 96 % 1000,6 hPa 0,0 l/m 0 min 2 min 48 W/m 12,9 km/h (3 Bft) 95,65 %
17.01.2019 14:04 3,6 C 2,8 C 2,8 C 96 % 1000,6 hPa 0,0 l/m 0 min 2 min 50 W/m 12,9 km/h (3 Bft) 95,74 %
17.01.2019 14:06 3,6 C 2,8 C 2,2 C 96 % 1000,6 hPa 0,0 l/m 0 min 2 min 63 W/m 16,1 km/h (3 Bft) 93,62 %
17.01.2019 14:08 3,6 C 2,8 C 2,8 C 96 % 1000,7 hPa 0,0 l/m 0 min 2 min 75 W/m 16,1 km/h (3 Bft) 93,62 %
17.01.2019 14:10 3,6 C 2,8 C 2,8 C 96 % 1000,6 hPa 0,0 l/m 0 min 2 min 84 W/m 29,0 km/h (5 Bft) 95,74 %
17.01.2019 14:12 3,6 C 2,8 C 2,8 C 96 % 1000,6 hPa 0,0 l/m 0 min 2 min 72 W/m 19,3 km/h (3 Bft) 93,48 %
17.01.2019 14:14 3,6 C 2,8 C 2,8 C 96 % 1000,6 hPa 0,0 l/m 0 min 2 min 61 W/m 19,3 km/h (3 Bft) 95,74 %
17.01.2019 14:16 3,6 C 2,8 C 2,8 C 96 % 1000,7 hPa 0,0 l/m 0 min 2 min 60 W/m 16,1 km/h (3 Bft) 95,74 %
17.01.2019 14:18 3,6 C 2,8 C 2,2 C 96 % 1000,8 hPa 0,0 l/m 0 min 2 min 61 W/m 22,5 km/h (4 Bft) 95,74 %
17.01.2019 14:20 3,6 C 2,8 C 2,2 C 96 % 1000,8 hPa 0,0 l/m 0 min 2 min 45 W/m 16,1 km/h (3 Bft) 97,87 %
17.01.2019 14:22 3,6 C 2,8 C 2,2 C 96 % 1000,9 hPa 0,0 l/m 0 min 2 min 39 W/m 16,1 km/h (3 Bft) 97,87 %
17.01.2019 14:24 3,6 C 2,8 C 2,2 C 96 % 1000,9 hPa 0,0 l/m 0 min 2 min 45 W/m 29,0 km/h (5 Bft) 95,65 %
17.01.2019 14:26 3,6 C 2,8 C 2,8 C 96 % 1000,9 hPa 0,0 l/m 0 min 2 min 69 W/m 19,3 km/h (3 Bft) 91,49 %
17.01.2019 14:28 3,5 C 2,8 C 2,8 C 96 % 1001,1 hPa 0,0 l/m 0 min 2 min 87 W/m 29,0 km/h (5 Bft) 93,62 %
17.01.2019 14:30 3,6 C 3,3 C 2,8 C 96 % 1001,0 hPa 0,0 l/m 0 min 2 min 116 W/m 25,7 km/h (4 Bft) 95,74 %
17.01.2019 14:32 3,5 C 3,3 C 2,8 C 96 % 1001,1 hPa 0,0 l/m 0 min 2 min 110 W/m 19,3 km/h (3 Bft) 93,62 %
17.01.2019 14:34 3,6 C 3,3 C 2,8 C 96 % 1001,1 hPa 0,0 l/m 0 min 2 min 121 W/m 19,3 km/h (3 Bft) 97,87 %
17.01.2019 14:36 3,6 C 3,3 C 2,8 C 96 % 1001,2 hPa 0,0 l/m 0 min 2 min 120 W/m 19,3 km/h (3 Bft) 97,83 %
17.01.2019 14:38 3,6 C 3,3 C 2,8 C 96 % 1001,2 hPa 0,0 l/m 0 min 2 min 105 W/m 25,7 km/h (4 Bft) 97,87 %
17.01.2019 14:40 3,6 C 3,3 C 2,8 C 96 % 1001,3 hPa 0,0 l/m 0 min 2 min 88 W/m 25,7 km/h (4 Bft) 97,87 %
17.01.2019 14:42 3,6 C 2,8 C 2,8 C 96 % 1001,4 hPa 0,0 l/m 0 min 2 min 91 W/m 25,7 km/h (4 Bft) 97,87 %
17.01.2019 14:44 3,6 C 3,3 C 2,8 C 96 % 1001,3 hPa 0,0 l/m 0 min 2 min 106 W/m 19,3 km/h (3 Bft) 95,74 %
17.01.2019 14:46 3,6 C 2,8 C 2,8 C 96 % 1001,4 hPa 0,0 l/m 0 min 2 min 69 W/m 22,5 km/h (4 Bft) 95,74 %
17.01.2019 14:48 3,6 C 2,8 C 2,8 C 96 % 1001,4 hPa 0,0 l/m 0 min 2 min 53 W/m 29,0 km/h (5 Bft) 97,83 %
17.01.2019 14:50 3,6 C 2,8 C 2,8 C 96 % 1001,5 hPa 0,0 l/m 0 min 2 min 64 W/m 29,0 km/h (5 Bft) 97,87 %
17.01.2019 14:52 3,6 C 2,8 C 2,8 C 96 % 1001,5 hPa 0,0 l/m 0 min 2 min 72 W/m 19,3 km/h (3 Bft) 97,87 %
17.01.2019 14:54 3,6 C 2,8 C 2,8 C 96 % 1001,5 hPa 0,0 l/m 0 min 2 min 60 W/m 22,5 km/h (4 Bft) 97,87 %
17.01.2019 14:56 3,6 C 2,8 C 2,8 C 96 % 1001,6 hPa 0,0 l/m 0 min 2 min 57 W/m 19,3 km/h (3 Bft) 95,74 %
17.01.2019 14:58 3,5 C 2,8 C 2,8 C 96 % 1001,6 hPa 0,0 l/m 0 min 0 min 77 W/m 22,5 km/h (4 Bft) 97,87 %
17.01.2019 15:00 3,5 C 3,9 C 2,8 C 96 % 1001,6 hPa 0,0 l/m 2 min 0 min 126 W/m 19,3 km/h (3 Bft) 97,83 %
17.01.2019 15:02 3,6 C 3,9 C 2,8 C 96 % 1001,7 hPa 0,0 l/m 2 min 0 min 197 W/m 22,5 km/h (4 Bft) 97,87 %
17.01.2019 15:04 3,6 C 3,9 C 2,8 C 96 % 1001,6 hPa 0,0 l/m 2 min 0 min 162 W/m 12,9 km/h (3 Bft) 97,87 %
17.01.2019 15:06 3,6 C 3,3 C 2,2 C 96 % 1001,8 hPa 0,0 l/m 0 min 0 min 66 W/m 12,9 km/h (3 Bft) 97,87 %
17.01.2019 15:08 3,6 C 3,3 C 2,2 C 96 % 1001,9 hPa 0,0 l/m 0 min 0 min 91 W/m 12,9 km/h (3 Bft) 95,74 %
17.01.2019 15:10 3,6 C 3,3 C 2,8 C 96 % 1001,9 hPa 0,0 l/m 0 min 0 min 76 W/m 6,4 km/h (2 Bft) 97,87 %
17.01.2019 15:12 3,6 C 3,3 C 2,8 C 96 % 1001,9 hPa 0,0 l/m 0 min 0 min 66 W/m 19,3 km/h (3 Bft) 95,65 %
17.01.2019 15:14 3,6 C 2,8 C 2,8 C 96 % 1001,9 hPa 0,0 l/m 0 min 0 min 63 W/m 16,1 km/h (3 Bft) 97,87 %
17.01.2019 15:16 3,6 C 2,8 C 2,8 C 96 % 1001,9 hPa 0,0 l/m 0 min 0 min 72 W/m 12,9 km/h (3 Bft) 97,87 %
17.01.2019 15:18 3,6 C 2,8 C 2,8 C 96 % 1002,0 hPa 0,0 l/m 0 min 0 min 91 W/m 12,9 km/h (3 Bft) 100,00 %
17.01.2019 15:20 3,6 C 2,8 C 2,8 C 96 % 1002,1 hPa 0,0 l/m 0 min 2 min 73 W/m 29,0 km/h (5 Bft) 95,74 %
17.01.2019 15:22 3,6 C 2,8 C 2,8 C 96 % 1002,1 hPa 0,0 l/m 0 min 0 min 53 W/m 12,9 km/h (3 Bft) 97,83 %
17.01.2019 15:24 3,6 C 2,8 C 2,2 C 96 % 1002,1 hPa 0,0 l/m 0 min 0 min 50 W/m 16,1 km/h (3 Bft) 100,00 %
17.01.2019 15:26 3,6 C 2,8 C 2,2 C 96 % 1002,1 hPa 0,0 l/m 0 min 0 min 46 W/m 16,1 km/h (3 Bft) 97,87 %
17.01.2019 15:28 3,5 C 2,8 C 2,2 C 96 % 1002,2 hPa 0,0 l/m 0 min 0 min 42 W/m 19,3 km/h (3 Bft) 100,00 %
17.01.2019 15:30 3,5 C 2,8 C 2,2 C 96 % 1002,2 hPa 0,0 l/m 0 min 0 min 44 W/m 9,7 km/h (2 Bft) 97,87 %
17.01.2019 15:32 3,5 C 2,8 C 2,2 C 96 % 1002,2 hPa 0,0 l/m 0 min 0 min 40 W/m 9,7 km/h (2 Bft) 97,87 %
17.01.2019 15:34 3,5 C 2,8 C 2,2 C 96 % 1002,2 hPa 0,0 l/m 0 min 0 min 33 W/m 12,9 km/h (3 Bft) 97,83 %
17.01.2019 15:36 3,5 C 2,8 C 2,2 C 96 % 1002,2 hPa 0,0 l/m 0 min 0 min 27 W/m 6,4 km/h (2 Bft) 95,74 %
17.01.2019 15:38 3,5 C 2,8 C 2,2 C 96 % 1002,3 hPa 0,0 l/m 0 min 0 min 24 W/m 9,7 km/h (2 Bft) 95,74 %
17.01.2019 15:40 3,5 C 2,8 C 2,2 C 96 % 1002,3 hPa 0,0 l/m 0 min 0 min 23 W/m 9,7 km/h (2 Bft) 100,00 %
17.01.2019 15:42 3,5 C 2,8 C 2,2 C 96 % 1002,4 hPa 0,0 l/m 0 min 2 min 18 W/m 6,4 km/h (2 Bft) 100,00 %
17.01.2019 15:44 3,5 C 2,8 C 2,2 C 96 % 1002,3 hPa 0,0 l/m 0 min 2 min 11 W/m 12,9 km/h (3 Bft) 100,00 %
17.01.2019 15:46 3,5 C 2,8 C 2,2 C 96 % 1002,4 hPa 0,0 l/m 0 min 0 min 9 W/m 9,7 km/h (2 Bft) 100,00 %
17.01.2019 15:48 3,5 C 2,8 C 2,2 C 96 % 1002,6 hPa 0,0 l/m 0 min 2 min 6 W/m 16,1 km/h (3 Bft) 97,87 %
17.01.2019 15:50 3,5 C 2,8 C 2,2 C 96 % 1002,7 hPa 0,0 l/m 0 min 2 min 1 W/m 22,5 km/h (4 Bft) 100,00 %
17.01.2019 15:52 3,5 C 2,2 C 1,7 C 96 % 1002,6 hPa 0,2 l/m 0 min 2 min 0 W/m 29,0 km/h (5 Bft) 97,87 %
17.01.2019 15:54 3,3 C 1,1 C 0,6 C 96 % 1002,8 hPa 0,0 l/m 0 min 2 min 0 W/m 45,1 km/h (6 Bft) 100,00 %
17.01.2019 15:56 2,9 C 0,6 C 0,0 C 96 % 1002,7 hPa 0,0 l/m 0 min 2 min 0 W/m 29,0 km/h (5 Bft) 100,00 %
17.01.2019 15:58 2,6 C 0,6 C 0,0 C 95 % 1002,7 hPa 0,0 l/m 0 min 2 min 7 W/m 25,7 km/h (4 Bft) 100,00 %
17.01.2019 16:00 2,4 C 0,6 C 0,0 C 95 % 1002,8 hPa 0,0 l/m 0 min 2 min 22 W/m 16,1 km/h (3 Bft) 100,00 %
17.01.2019 16:02 2,3 C 1,1 C 0,6 C 95 % 1002,8 hPa 0,0 l/m 0 min 2 min 26 W/m 9,7 km/h (2 Bft) 97,87 %
17.01.2019 16:04 2,2 C 1,1 C 0,6 C 95 % 1002,8 hPa 0,2 l/m 0 min 0 min 24 W/m 19,3 km/h (3 Bft) 97,87 %
17.01.2019 16:06 2,2 C 1,1 C 0,6 C 95 % 1002,8 hPa 0,0 l/m 0 min 2 min 18 W/m 12,9 km/h (3 Bft) 97,87 %
17.01.2019 16:08 2,2 C 1,1 C 0,6 C 95 % 1002,9 hPa 0,0 l/m 0 min 2 min 12 W/m 16,1 km/h (3 Bft) 97,87 %
17.01.2019 16:10 2,2 C 1,1 C 0,6 C 95 % 1002,9 hPa 0,2 l/m 0 min 2 min 6 W/m 9,7 km/h (2 Bft) 97,87 %
17.01.2019 16:12 2,2 C 1,1 C 0,6 C 95 % 1002,9 hPa 0,0 l/m 0 min 2 min 5 W/m 12,9 km/h (3 Bft) 97,87 %
17.01.2019 16:14 2,2 C 1,1 C 0,6 C 95 % 1002,9 hPa 0,0 l/m 0 min 2 min 5 W/m 12,9 km/h (3 Bft) 97,87 %
17.01.2019 16:16 2,1 C 1,1 C 0,6 C 95 % 1003,0 hPa 0,0 l/m 0 min 2 min 0 W/m 12,9 km/h (3 Bft) 97,87 %
17.01.2019 16:18 2,1 C 1,1 C 0,0 C 95 % 1003,1 hPa 0,0 l/m 0 min 2 min 0 W/m 12,9 km/h (3 Bft) 97,87 %
17.01.2019 16:20 2,1 C 1,1 C 0,6 C 95 % 1003,3 hPa 0,0 l/m 0 min 2 min 0 W/m 12,9 km/h (3 Bft) 97,83 %
17.01.2019 16:22 2,1 C 1,1 C 0,6 C 95 % 1003,4 hPa 0,0 l/m 0 min 2 min 0 W/m 29,0 km/h (5 Bft) 95,74 %
17.01.2019 16:24 2,0 C 1,1 C 0,6 C 95 % 1003,4 hPa 0,0 l/m 0 min 2 min 0 W/m 25,7 km/h (4 Bft) 93,62 %
17.01.2019 16:26 1,9 C 1,1 C 0,6 C 95 % 1003,5 hPa 0,2 l/m 0 min 2 min 5 W/m 25,7 km/h (4 Bft) 93,62 %
17.01.2019 16:28 1,9 C 1,1 C 0,6 C 95 % 1003,4 hPa 0,0 l/m 0 min 2 min 10 W/m 12,9 km/h (3 Bft) 82,98 %
17.01.2019 16:30 1,9 C 1,1 C 0,6 C 95 % 1003,3 hPa 0,0 l/m 0 min 2 min 16 W/m 16,1 km/h (3 Bft) 74,47 %
17.01.2019 16:32 1,9 C 1,1 C 0,6 C 95 % 1003,3 hPa 0,0 l/m 0 min 0 min 22 W/m 19,3 km/h (3 Bft) 68,09 %
17.01.2019 16:34 1,8 C 1,1 C 0,6 C 95 % 1003,4 hPa 0,0 l/m 0 min 0 min 22 W/m 16,1 km/h (3 Bft) 74,47 %
17.01.2019 16:36 1,8 C 1,1 C 0,6 C 96 % 1003,3 hPa 0,2 l/m 2 min 0 min 27 W/m 6,4 km/h (2 Bft) 95,74 %
17.01.2019 16:38 1,8 C 1,1 C 0,6 C 96 % 1003,3 hPa 0,0 l/m 2 min 0 min 22 W/m 6,4 km/h (2 Bft) 95,74 %
17.01.2019 16:40 1,8 C 1,1 C 0,6 C 96 % 1003,4 hPa 0,0 l/m 0 min 0 min 19 W/m 6,4 km/h (2 Bft) 95,74 %
17.01.2019 16:42 1,8 C 1,1 C 0,6 C 96 % 1003,4 hPa 0,0 l/m 0 min 0 min 18 W/m 6,4 km/h (2 Bft) 91,30 %
17.01.2019 16:44 1,8 C 0,6 C 0,6 C 95 % 1003,5 hPa 0,0 l/m 0 min 0 min 18 W/m 6,4 km/h (2 Bft) 95,74 %
17.01.2019 16:46 1,7 C 0,6 C 0,6 C 95 % 1003,5 hPa 0,0 l/m 0 min 0 min 17 W/m 6,4 km/h (2 Bft) 97,87 %
17.01.2019 16:48 1,7 C 1,1 C 0,6 C 95 % 1003,6 hPa 0,0 l/m 0 min 0 min 14 W/m 6,4 km/h (2 Bft) 95,74 %
17.01.2019 16:50 1,7 C 0,6 C 0,6 C 96 % 1003,6 hPa 0,0 l/m 0 min 0 min 12 W/m 9,7 km/h (2 Bft) 95,74 %
17.01.2019 16:52 1,7 C 0,6 C 0,6 C 96 % 1003,6 hPa 0,0 l/m 0 min 0 min 8 W/m 6,4 km/h (2 Bft) 93,62 %
17.01.2019 16:54 1,7 C 0,6 C 0,6 C 96 % 1003,6 hPa 0,0 l/m 0 min 0 min 6 W/m 6,4 km/h (2 Bft) 93,48 %
17.01.2019 16:56 1,7 C 1,1 C 0,6 C 96 % 1003,6 hPa 0,0 l/m 0 min 0 min 5 W/m 12,9 km/h (3 Bft) 93,62 %
17.01.2019 16:58 1,8 C 1,1 C 0,6 C 96 % 1003,6 hPa 0,0 l/m 0 min 0 min 4 W/m 16,1 km/h (3 Bft) 95,74 %
17.01.2019 17:00 1,8 C 1,1 C 0,6 C 96 % 1003,6 hPa 0,0 l/m 0 min 0 min 0 W/m 19,3 km/h (3 Bft) 97,87 %
17.01.2019 17:02 1,8 C 1,1 C 1,1 C 96 % 1003,7 hPa 0,0 l/m 0 min 0 min 0 W/m 12,9 km/h (3 Bft) 95,74 %
17.01.2019 17:04 1,9 C 1,1 C 1,1 C 96 % 1003,8 hPa 0,0 l/m 0 min 2 min 0 W/m 16,1 km/h (3 Bft) 95,74 %
17.01.2019 17:06 1,9 C 1,7 C 1,1 C 96 % 1003,8 hPa 0,0 l/m 0 min 2 min 0 W/m 22,5 km/h (4 Bft) 97,83 %
17.01.2019 17:08 2,0 C 1,7 C 1,1 C 96 % 1003,9 hPa 0,2 l/m 0 min 2 min 0 W/m 19,3 km/h (3 Bft) 97,87 %
17.01.2019 17:10 2,1 C 1,7 C 1,1 C 96 % 1003,9 hPa 0,0 l/m 0 min 2 min 0 W/m 19,3 km/h (3 Bft) 97,83 %
17.01.2019 17:12 2,1 C 1,7 C 1,1 C 96 % 1003,9 hPa 0,0 l/m 0 min 2 min 0 W/m 12,9 km/h (3 Bft) 95,74 %
17.01.2019 17:14 2,1 C 1,1 C 1,1 C 96 % 1003,9 hPa 0,0 l/m 0 min 2 min 0 W/m 16,1 km/h (3 Bft) 97,87 %
17.01.2019 17:16 2,1 C 1,1 C 1,1 C 96 % 1004,0 hPa 0,0 l/m 0 min 2 min 0 W/m 16,1 km/h (3 Bft) 97,87 %
17.01.2019 17:18 2,1 C 1,1 C 0,6 C 96 % 1004,0 hPa 0,0 l/m 0 min 2 min 0 W/m 19,3 km/h (3 Bft) 97,83 %
17.01.2019 17:20 2,1 C 1,1 C 0,6 C 96 % 1004,1 hPa 0,0 l/m 0 min 2 min 0 W/m 16,1 km/h (3 Bft) 95,74 %
17.01.2019 17:22 2,1 C 1,1 C 0,6 C 96 % 1004,0 hPa 0,0 l/m 0 min 2 min 0 W/m 16,1 km/h (3 Bft) 97,87 %
17.01.2019 17:24 2,1 C 1,1 C 0,6 C 96 % 1004,1 hPa 0,0 l/m 0 min 2 min 0 W/m 22,5 km/h (4 Bft) 97,87 %
17.01.2019 17:26 2,1 C 1,1 C 0,6 C 96 % 1004,1 hPa 0,0 l/m 0 min 2 min 0 W/m 16,1 km/h (3 Bft) 100,00 %
17.01.2019 17:28 2,1 C 1,1 C 0,6 C 96 % 1004,2 hPa 0,0 l/m 0 min 2 min 0 W/m 16,1 km/h (3 Bft) 100,00 %
17.01.2019 17:30 2,1 C 1,1 C 0,6 C 96 % 1004,4 hPa 0,2 l/m 0 min 2 min 0 W/m 32,2 km/h (5 Bft) 97,83 %
17.01.2019 17:32 2,1 C 1,1 C 0,6 C 96 % 1004,2 hPa 0,0 l/m 0 min 2 min 0 W/m 19,3 km/h (3 Bft) 100,00 %
17.01.2019 17:34 2,1 C 1,1 C 0,6 C 96 % 1004,3 hPa 0,0 l/m 0 min 2 min 0 W/m 19,3 km/h (3 Bft) 100,00 %
17.01.2019 17:36 2,1 C 1,1 C 0,6 C 96 % 1004,3 hPa 0,0 l/m 0 min 2 min 0 W/m 19,3 km/h (3 Bft) 100,00 %
17.01.2019 17:38 2,1 C 1,1 C 0,6 C 96 % 1004,3 hPa 0,0 l/m 0 min 0 min 0 W/m 16,1 km/h (3 Bft) 100,00 %
17.01.2019 17:40 2,1 C 1,1 C 0,6 C 96 % 1004,4 hPa 0,0 l/m 0 min 2 min 0 W/m 12,9 km/h (3 Bft) 100,00 %
17.01.2019 17:42 2,1 C 1,1 C 1,1 C 96 % 1004,4 hPa 0,0 l/m 0 min 0 min 0 W/m 16,1 km/h (3 Bft) 100,00 %
17.01.2019 17:44 2,1 C 1,1 C 1,1 C 96 % 1004,4 hPa 0,0 l/m 0 min 2 min 0 W/m 19,3 km/h (3 Bft) 97,83 %
17.01.2019 17:46 2,1 C 1,1 C 1,1 C 96 % 1004,4 hPa 0,0 l/m 0 min 2 min 0 W/m 16,1 km/h (3 Bft) 100,00 %
17.01.2019 17:48 2,1 C 1,1 C 1,1 C 96 % 1004,4 hPa 0,0 l/m 0 min 2 min 0 W/m 25,7 km/h (4 Bft) 100,00 %
17.01.2019 17:50 2,1 C 1,1 C 1,1 C 96 % 1004,5 hPa 0,0 l/m 0 min 2 min 0 W/m 22,5 km/h (4 Bft) 97,87 %
17.01.2019 17:52 2,1 C 1,1 C 1,1 C 96 % 1004,5 hPa 0,0 l/m 0 min 2 min 0 W/m 12,9 km/h (3 Bft) 97,87 %
17.01.2019 17:54 2,1 C 1,1 C 0,6 C 96 % 1004,6 hPa 0,0 l/m 0 min 2 min 0 W/m 12,9 km/h (3 Bft) 97,83 %
17.01.2019 17:56 2,1 C 1,1 C 0,6 C 96 % 1004,6 hPa 0,0 l/m 0 min 2 min 0 W/m 9,7 km/h (2 Bft) 100,00 %
17.01.2019 17:58 2,1 C 1,1 C 1,1 C 96 % 1004,6 hPa 0,0 l/m 0 min 2 min 0 W/m 16,1 km/h (3 Bft) 97,87 %
17.01.2019 18:00 2,1 C 1,1 C 0,6 C 96 % 1004,6 hPa 0,0 l/m 0 min 2 min 0 W/m 16,1 km/h (3 Bft) 95,74 %
17.01.2019 18:02 2,1 C 1,1 C 0,6 C 96 % 1004,6 hPa 0,0 l/m 0 min 2 min 0 W/m 16,1 km/h (3 Bft) 95,74 %
17.01.2019 18:04 2,1 C 1,1 C 0,6 C 96 % 1004,6 hPa 0,0 l/m 0 min 2 min 0 W/m 16,1 km/h (3 Bft) 97,83 %
17.01.2019 18:08 2,1 C 1,1 C 0,6 C 96 % 1004,6 hPa 0,0 l/m 0 min 4 min 0 W/m 12,9 km/h (3 Bft) 97,87 %
17.01.2019 18:10 2,1 C 1,1 C 0,6 C 96 % 1004,7 hPa 0,0 l/m 0 min 2 min 0 W/m 9,7 km/h (2 Bft) 97,92 %
17.01.2019 18:12 2,1 C 1,1 C 0,6 C 96 % 1004,7 hPa 0,2 l/m 0 min 2 min 0 W/m 19,3 km/h (3 Bft) 97,14 %
17.01.2019 18:14 2,1 C 1,1 C 0,6 C 96 % 1004,8 hPa 0,0 l/m 0 min 2 min 0 W/m 9,7 km/h (2 Bft) 97,87 %
17.01.2019 18:16 2,1 C 1,1 C 0,6 C 96 % 1005,0 hPa 0,0 l/m 0 min 2 min 0 W/m 22,5 km/h (4 Bft) 97,87 %
17.01.2019 18:18 2,1 C 1,1 C 0,6 C 96 % 1004,8 hPa 0,0 l/m 0 min 2 min 0 W/m 16,1 km/h (3 Bft) 97,87 %
17.01.2019 18:20 2,1 C 1,1 C 0,6 C 96 % 1004,9 hPa 0,0 l/m 0 min 2 min 0 W/m 19,3 km/h (3 Bft) 97,83 %
17.01.2019 18:22 2,1 C 1,1 C 0,6 C 96 % 1005,0 hPa 0,0 l/m 0 min 2 min 0 W/m 25,7 km/h (4 Bft) 97,87 %
17.01.2019 18:24 2,0 C 1,1 C 0,6 C 95 % 1005,1 hPa 0,0 l/m 0 min 2 min 0 W/m 9,7 km/h (2 Bft) 97,87 %
17.01.2019 18:26 2,0 C 1,1 C 0,6 C 96 % 1005,1 hPa 0,0 l/m 0 min 2 min 0 W/m 19,3 km/h (3 Bft) 97,87 %
17.01.2019 18:28 2,0 C 1,1 C 0,6 C 96 % 1005,2 hPa 0,0 l/m 0 min 2 min 0 W/m 22,5 km/h (4 Bft) 96,30 %
17.01.2019 18:30 1,9 C 1,1 C 0,6 C 95 % 1005,2 hPa 0,0 l/m 0 min 2 min 0 W/m 16,1 km/h (3 Bft) 98,00 %
17.01.2019 18:32 1,9 C 1,1 C 0,6 C 95 % 1005,2 hPa 0,0 l/m 0 min 2 min 0 W/m 12,9 km/h (3 Bft) 97,87 %
17.01.2019 18:34 1,9 C 1,1 C 0,6 C 95 % 1005,2 hPa 0,0 l/m 0 min 2 min 0 W/m 16,1 km/h (3 Bft) 97,92 %
17.01.2019 18:36 1,9 C 1,1 C 0,6 C 95 % 1005,4 hPa 0,0 l/m 0 min 2 min 0 W/m 19,3 km/h (3 Bft) 97,87 %
17.01.2019 18:38 1,8 C 0,6 C 0,6 C 95 % 1005,5 hPa 0,0 l/m 0 min 2 min 0 W/m 19,3 km/h (3 Bft) 95,74 %
17.01.2019 18:40 1,8 C 0,6 C 0,6 C 96 % 1005,5 hPa 0,2 l/m 0 min 2 min 0 W/m 16,1 km/h (3 Bft) 97,83 %
17.01.2019 18:42 1,8 C 0,6 C 0,0 C 96 % 1005,6 hPa 0,0 l/m 0 min 2 min 0 W/m 16,1 km/h (3 Bft) 97,22 %
17.01.2019 18:44 1,7 C 0,6 C 0,0 C 96 % 1005,7 hPa 0,0 l/m 0 min 2 min 0 W/m 12,9 km/h (3 Bft) 95,65 %
17.01.2019 18:46 1,6 C 0,6 C 0,0 C 95 % 1005,6 hPa 0,0 l/m 0 min 2 min 0 W/m 12,9 km/h (3 Bft) 97,87 %
17.01.2019 18:48 1,6 C 0,0 C -1,1 C 95 % 1005,7 hPa 0,0 l/m 0 min 2 min 0 W/m 19,3 km/h (3 Bft) 97,87 %
17.01.2019 18:50 1,4 C -0,6 C -1,1 C 95 % 1005,7 hPa 0,0 l/m 0 min 2 min 0 W/m 16,1 km/h (3 Bft) 96,43 %
17.01.2019 18:52 1,3 C -0,6 C -1,1 C 95 % 1005,8 hPa 0,0 l/m 0 min 2 min 0 W/m 12,9 km/h (3 Bft) 95,92 %
17.01.2019 18:54 1,2 C -0,6 C -1,1 C 95 % 1005,8 hPa 0,0 l/m 0 min 2 min 0 W/m 6,4 km/h (2 Bft) 94,74 %
17.01.2019 18:56 1,1 C -0,6 C -1,1 C 95 % 1005,8 hPa 0,0 l/m 0 min 2 min 0 W/m 9,7 km/h (2 Bft) 97,87 %
17.01.2019 18:58 1,1 C -0,6 C -1,1 C 95 % 1005,8 hPa 0,0 l/m 0 min 2 min 0 W/m 9,7 km/h (2 Bft) 97,87 %
17.01.2019 19:00 1,0 C 0,0 C -1,1 C 95 % 1005,9 hPa 0,0 l/m 0 min 2 min 0 W/m 9,7 km/h (2 Bft) 97,87 %
17.01.2019 19:02 0,9 C 0,0 C -0,6 C 95 % 1005,8 hPa 0,0 l/m 0 min 2 min 0 W/m 9,7 km/h (2 Bft) 96,00 %
17.01.2019 19:04 0,9 C 0,0 C -0,6 C 95 % 1005,9 hPa 0,0 l/m 0 min 2 min 0 W/m 9,7 km/h (2 Bft) 95,65 %
17.01.2019 19:06 0,9 C 0,0 C -0,6 C 95 % 1006,0 hPa 0,0 l/m 0 min 2 min 0 W/m 16,1 km/h (3 Bft) 93,62 %
17.01.2019 19:08 0,8 C 0,0 C -0,6 C 95 % 1006,0 hPa 0,0 l/m 0 min 2 min 0 W/m 12,9 km/h (3 Bft) 95,74 %
17.01.2019 19:10 0,8 C 0,0 C -0,6 C 95 % 1006,0 hPa 0,2 l/m 0 min 2 min 0 W/m 9,7 km/h (2 Bft) 98,00 %
17.01.2019 19:12 0,8 C 0,0 C -0,6 C 95 % 1006,1 hPa 0,0 l/m 0 min 2 min 0 W/m 19,3 km/h (3 Bft) 95,74 %
17.01.2019 19:14 0,8 C 0,0 C -0,6 C 95 % 1006,1 hPa 0,0 l/m 0 min 2 min 0 W/m 9,7 km/h (2 Bft) 95,74 %
17.01.2019 19:16 0,8 C 0,0 C -0,6 C 96 % 1006,1 hPa 0,0 l/m 0 min 2 min 0 W/m 12,9 km/h (3 Bft) 95,65 %
17.01.2019 19:18 0,7 C 0,0 C -0,6 C 96 % 1006,1 hPa 0,0 l/m 0 min 2 min 0 W/m 6,4 km/h (2 Bft) 91,49 %
17.01.2019 19:20 0,7 C 0,0 C -0,6 C 96 % 1006,2 hPa 0,0 l/m 0 min 2 min 0 W/m 22,5 km/h (4 Bft) 93,62 %
17.01.2019 19:22 0,7 C 0,0 C -0,6 C 96 % 1006,2 hPa 0,0 l/m 0 min 2 min 0 W/m 6,4 km/h (2 Bft) 97,87 %
17.01.2019 19:24 0,7 C 0,0 C -0,6 C 96 % 1006,2 hPa 0,0 l/m 0 min 2 min 0 W/m 9,7 km/h (2 Bft) 97,87 %
17.01.2019 19:26 0,7 C 0,0 C -0,6 C 96 % 1006,2 hPa 0,0 l/m 0 min 2 min 0 W/m 6,4 km/h (2 Bft) 93,48 %
17.01.2019 19:28 0,7 C 0,0 C -0,6 C 96 % 1006,3 hPa 0,2 l/m 0 min 0 min 0 W/m 6,4 km/h (2 Bft) 95,74 %
17.01.2019 19:30 0,7 C 0,0 C -0,6 C 96 % 1006,2 hPa 0,0 l/m 0 min 0 min 0 W/m 6,4 km/h (2 Bft) 93,62 %
17.01.2019 19:32 0,7 C 0,0 C -0,6 C 96 % 1006,3 hPa 0,0 l/m 0 min 0 min 0 W/m 12,9 km/h (3 Bft) 95,74 %
17.01.2019 19:34 0,7 C 0,0 C 0,0 C 96 % 1006,4 hPa 0,0 l/m 0 min 2 min 0 W/m 9,7 km/h (2 Bft) 94,00 %
17.01.2019 19:36 0,7 C 0,0 C 0,0 C 96 % 1006,4 hPa 0,0 l/m 0 min 0 min 0 W/m 9,7 km/h (2 Bft) 97,87 %
17.01.2019 19:38 0,8 C 0,0 C 0,0 C 96 % 1006,4 hPa 0,0 l/m 0 min 0 min 0 W/m 9,7 km/h (2 Bft) 97,83 %
17.01.2019 19:40 0,8 C 0,0 C 0,0 C 96 % 1006,5 hPa 0,0 l/m 0 min 0 min 0 W/m 9,7 km/h (2 Bft) 97,37 %
17.01.2019 19:42 0,8 C 0,0 C 0,0 C 96 % 1006,6 hPa 0,0 l/m 0 min 0 min 0 W/m 9,7 km/h (2 Bft) 97,87 %
17.01.2019 19:44 0,8 C 0,0 C 0,0 C 96 % 1006,5 hPa 0,0 l/m 0 min 0 min 0 W/m 9,7 km/h (2 Bft) 97,87 %
17.01.2019 19:46 0,8 C 0,0 C 0,0 C 96 % 1006,7 hPa 0,0 l/m 0 min 0 min 0 W/m 12,9 km/h (3 Bft) 97,87 %
17.01.2019 19:48 0,8 C 0,0 C 0,0 C 96 % 1006,7 hPa 0,0 l/m 0 min 0 min 0 W/m 9,7 km/h (2 Bft) 97,87 %
17.01.2019 19:50 0,8 C 0,0 C 0,0 C 96 % 1006,7 hPa 0,0 l/m 0 min 0 min 0 W/m 16,1 km/h (3 Bft) 97,87 %
17.01.2019 19:52 0,9 C 0,0 C 0,0 C 96 % 1006,8 hPa 0,0 l/m 0 min 0 min 0 W/m 12,9 km/h (3 Bft) 97,83 %
17.01.2019 19:54 0,9 C 0,0 C 0,0 C 96 % 1006,7 hPa 0,0 l/m 0 min 0 min 0 W/m 9,7 km/h (2 Bft) 97,87 %
17.01.2019 19:56 0,9 C 0,0 C 0,0 C 96 % 1006,8 hPa 0,0 l/m 0 min 0 min 0 W/m 9,7 km/h (2 Bft) 97,87 %
17.01.2019 19:58 0,9 C 0,0 C 0,0 C 96 % 1006,8 hPa 0,0 l/m 0 min 0 min 0 W/m 9,7 km/h (2 Bft) 94,00 %
17.01.2019 20:00 0,9 C 0,0 C 0,0 C 96 % 1006,9 hPa 0,0 l/m 0 min 0 min 0 W/m 9,7 km/h (2 Bft) 97,87 %
17.01.2019 20:02 0,9 C 0,0 C 0,0 C 96 % 1006,9 hPa 0,0 l/m 0 min 0 min 0 W/m 12,9 km/h (3 Bft) 97,87 %
17.01.2019 20:04 0,9 C 0,0 C 0,0 C 96 % 1006,9 hPa 0,0 l/m 0 min 0 min 0 W/m 9,7 km/h (2 Bft) 97,87 %
17.01.2019 20:06 0,9 C 0,0 C 0,0 C 96 % 1007,0 hPa 0,0 l/m 0 min 0 min 0 W/m 9,7 km/h (2 Bft) 97,87 %
17.01.2019 20:08 0,9 C 0,0 C 0,0 C 96 % 1007,0 hPa 0,0 l/m 0 min 0 min 0 W/m 19,3 km/h (3 Bft) 95,74 %
17.01.2019 20:10 0,9 C 0,0 C 0,0 C 96 % 1007,0 hPa 0,0 l/m 0 min 0 min 0 W/m 19,3 km/h (3 Bft) 95,74 %
17.01.2019 20:12 0,9 C 0,0 C -0,6 C 96 % 1007,0 hPa 0,0 l/m 0 min 0 min 0 W/m 6,4 km/h (2 Bft) 97,87 %
17.01.2019 20:14 0,9 C 0,0 C -0,6 C 96 % 1007,1 hPa 0,0 l/m 0 min 0 min 0 W/m 9,7 km/h (2 Bft) 100,00 %
17.01.2019 20:16 0,8 C 0,0 C -0,6 C 96 % 1007,2 hPa 0,0 l/m 0 min 0 min 0 W/m 12,9 km/h (3 Bft) 100,00 %
17.01.2019 20:20 0,8 C 0,0 C -0,6 C 96 % 1007,4 hPa 0,2 l/m 0 min 0 min 0 W/m 16,1 km/h (3 Bft) 100,00 %
17.01.2019 20:26 0,8 C 0,0 C -0,6 C 97 % 1007,5 hPa 0,0 l/m 0 min 0 min 0 W/m 9,7 km/h (2 Bft) 97,30 %
17.01.2019 20:28 0,8 C 0,0 C -0,6 C 97 % 1007,6 hPa 0,0 l/m 0 min 0 min 0 W/m 9,7 km/h (2 Bft) 100,00 %
17.01.2019 20:30 0,7 C 0,0 C -0,6 C 96 % 1007,6 hPa 0,0 l/m 0 min 0 min 0 W/m 12,9 km/h (3 Bft) 100,00 %
17.01.2019 20:32 0,7 C 0,0 C -0,6 C 97 % 1007,6 hPa 0,0 l/m 0 min 0 min 0 W/m 9,7 km/h (2 Bft) 100,00 %
17.01.2019 20:34 0,7 C 0,0 C -0,6 C 96 % 1007,7 hPa 0,0 l/m 0 min 0 min 0 W/m 9,7 km/h (2 Bft) 100,00 %
17.01.2019 20:36 0,7 C 0,0 C -0,6 C 96 % 1007,8 hPa 0,0 l/m 0 min 0 min 0 W/m 9,7 km/h (2 Bft) 100,00 %
17.01.2019 20:38 0,7 C 0,0 C -0,6 C 97 % 1007,8 hPa 0,0 l/m 0 min 0 min 0 W/m 9,7 km/h (2 Bft) 100,00 %
17.01.2019 20:40 0,7 C 0,0 C -0,6 C 97 % 1007,9 hPa 0,0 l/m 0 min 0 min 0 W/m 9,7 km/h (2 Bft) 100,00 %
17.01.2019 20:42 0,7 C 0,0 C -0,6 C 97 % 1007,9 hPa 0,0 l/m 0 min 0 min 0 W/m 12,9 km/h (3 Bft) 100,00 %
17.01.2019 20:44 0,7 C 0,0 C -0,6 C 97 % 1008,0 hPa 0,0 l/m 0 min 0 min 0 W/m 9,7 km/h (2 Bft) 100,00 %
17.01.2019 20:46 0,7 C 0,0 C -0,6 C 97 % 1008,0 hPa 0,0 l/m 0 min 0 min 0 W/m 9,7 km/h (2 Bft) 100,00 %
17.01.2019 20:48 0,7 C 0,0 C -0,6 C 97 % 1008,0 hPa 0,0 l/m 0 min 0 min 0 W/m 16,1 km/h (3 Bft) 100,00 %
17.01.2019 20:50 0,7 C 0,0 C 0,0 C 97 % 1008,1 hPa 0,0 l/m 0 min 0 min 0 W/m 9,7 km/h (2 Bft) 100,00 %
17.01.2019 20:52 0,7 C 0,0 C 0,0 C 97 % 1008,1 hPa 0,0 l/m 0 min 0 min 0 W/m 16,1 km/h (3 Bft) 100,00 %
17.01.2019 20:54 0,7 C 0,0 C 0,0 C 97 % 1008,1 hPa 0,0 l/m 0 min 0 min 0 W/m 9,7 km/h (2 Bft) 95,74 %
17.01.2019 20:56 0,7 C 0,0 C 0,0 C 97 % 1008,2 hPa 0,0 l/m 0 min 0 min 0 W/m 12,9 km/h (3 Bft) 100,00 %
17.01.2019 20:58 0,8 C 0,0 C 0,0 C 97 % 1008,1 hPa 0,0 l/m 0 min 0 min 0 W/m 16,1 km/h (3 Bft) 95,74 %
17.01.2019 21:00 0,8 C 0,0 C 0,0 C 97 % 1008,2 hPa 0,0 l/m 0 min 0 min 0 W/m 22,5 km/h (4 Bft) 97,83 %
17.01.2019 21:02 0,8 C 0,0 C 0,0 C 97 % 1008,2 hPa 0,0 l/m 0 min 0 min 0 W/m 9,7 km/h (2 Bft) 97,87 %
17.01.2019 21:04 0,8 C 0,0 C 0,0 C 97 % 1008,3 hPa 0,0 l/m 0 min 2 min 0 W/m 19,3 km/h (3 Bft) 100,00 %
17.01.2019 21:06 0,8 C 0,0 C 0,0 C 97 % 1008,4 hPa 0,0 l/m 0 min 0 min 0 W/m 16,1 km/h (3 Bft) 100,00 %
17.01.2019 21:08 0,8 C 0,0 C 0,0 C 97 % 1008,4 hPa 0,0 l/m 0 min 2 min 0 W/m 9,7 km/h (2 Bft) 100,00 %
17.01.2019 21:10 0,8 C 0,0 C 0,0 C 97 % 1008,4 hPa 0,0 l/m 0 min 0 min 0 W/m 9,7 km/h (2 Bft) 100,00 %
17.01.2019 21:12 0,8 C 0,0 C 0,0 C 97 % 1008,5 hPa 0,0 l/m 0 min 0 min 0 W/m 6,4 km/h (2 Bft) 100,00 %
17.01.2019 21:14 0,8 C 0,0 C 0,0 C 97 % 1008,5 hPa 0,0 l/m 0 min 0 min 0 W/m 12,9 km/h (3 Bft) 100,00 %
17.01.2019 21:16 0,8 C 0,0 C 0,0 C 97 % 1008,4 hPa 0,0 l/m 0 min 0 min 0 W/m 9,7 km/h (2 Bft) 97,87 %
17.01.2019 21:18 0,8 C 0,0 C 0,0 C 97 % 1008,5 hPa 0,0 l/m 0 min 0 min 0 W/m 16,1 km/h (3 Bft) 100,00 %
17.01.2019 21:20 0,8 C 0,0 C -0,6 C 97 % 1008,6 hPa 0,0 l/m 0 min 0 min 0 W/m 12,9 km/h (3 Bft) 100,00 %
17.01.2019 21:22 0,8 C 0,0 C -0,6 C 97 % 1008,7 hPa 0,0 l/m 0 min 0 min 0 W/m 12,9 km/h (3 Bft) 95,74 %
17.01.2019 21:24 0,8 C 0,0 C -0,6 C 97 % 1008,7 hPa 0,0 l/m 0 min 0 min 0 W/m 9,7 km/h (2 Bft) 100,00 %
17.01.2019 21:26 0,7 C 0,0 C -0,6 C 97 % 1008,7 hPa 0,0 l/m 0 min 0 min 0 W/m 12,9 km/h (3 Bft) 100,00 %
17.01.2019 21:28 0,7 C 0,0 C -0,6 C 97 % 1008,8 hPa 0,0 l/m 0 min 0 min 0 W/m 6,4 km/h (2 Bft) 100,00 %
17.01.2019 21:30 0,7 C 0,0 C -0,6 C 97 % 1008,9 hPa 0,0 l/m 0 min 0 min 0 W/m 19,3 km/h (3 Bft) 97,87 %
17.01.2019 21:32 0,7 C 0,0 C -0,6 C 97 % 1008,9 hPa 0,0 l/m 0 min 0 min 0 W/m 9,7 km/h (2 Bft) 95,12 %
17.01.2019 21:34 0,7 C 0,0 C -0,6 C 97 % 1009,0 hPa 0,0 l/m 0 min 0 min 0 W/m 9,7 km/h (2 Bft) 93,62 %
17.01.2019 21:36 0,7 C 0,0 C -0,6 C 97 % 1009,0 hPa 0,0 l/m 0 min 0 min 0 W/m 12,9 km/h (3 Bft) 94,83 %
17.01.2019 21:38 0,6 C 0,0 C -0,6 C 97 % 1009,0 hPa 0,0 l/m 0 min 0 min 0 W/m 6,4 km/h (2 Bft) 95,74 %
17.01.2019 21:40 0,6 C 0,0 C -0,6 C 97 % 1008,9 hPa 0,0 l/m 0 min 0 min 0 W/m 9,7 km/h (2 Bft) 94,29 %
17.01.2019 21:42 0,6 C 0,0 C -0,6 C 97 % 1008,9 hPa 0,0 l/m 0 min 0 min 0 W/m 12,9 km/h (3 Bft) 95,74 %
17.01.2019 21:44 0,6 C 0,0 C -0,6 C 97 % 1008,9 hPa 0,0 l/m 0 min 0 min 0 W/m 3,2 km/h (1 Bft) 95,74 %
17.01.2019 21:46 0,6 C 0,0 C -0,6 C 97 % 1008,9 hPa 0,0 l/m 0 min 0 min 0 W/m 6,4 km/h (2 Bft) 95,74 %
17.01.2019 21:48 0,5 C 0,0 C -0,6 C 97 % 1008,9 hPa 0,0 l/m 0 min 0 min 0 W/m 6,4 km/h (2 Bft) 95,74 %
17.01.2019 21:50 0,5 C 0,0 C -0,6 C 97 % 1009,0 hPa 0,0 l/m 0 min 0 min 0 W/m 9,7 km/h (2 Bft) 95,65 %
17.01.2019 21:52 0,5 C 0,0 C -0,6 C 97 % 1009,0 hPa 0,0 l/m 0 min 0 min 0 W/m 12,9 km/h (3 Bft) 95,74 %
17.01.2019 21:54 0,5 C -0,6 C -0,6 C 97 % 1009,1 hPa 0,0 l/m 0 min 0 min 0 W/m 9,7 km/h (2 Bft) 93,62 %
17.01.2019 21:56 0,5 C -0,6 C -0,6 C 97 % 1009,1 hPa 0,0 l/m 0 min 0 min 0 W/m 9,7 km/h (2 Bft) 93,62 %
17.01.2019 21:58 0,5 C -0,6 C -0,6 C 97 % 1009,1 hPa 0,0 l/m 0 min 0 min 0 W/m 6,4 km/h (2 Bft) 93,62 %
17.01.2019 22:00 0,5 C -0,6 C -0,6 C 97 % 1009,2 hPa 0,0 l/m 0 min 0 min 0 W/m 9,7 km/h (2 Bft) 95,74 %
17.01.2019 22:02 0,5 C -0,6 C -0,6 C 97 % 1009,2 hPa 0,0 l/m 0 min 0 min 0 W/m 12,9 km/h (3 Bft) 95,65 %
17.01.2019 22:04 0,5 C -0,6 C -0,6 C 97 % 1009,3 hPa 0,0 l/m 0 min 0 min 0 W/m 9,7 km/h (2 Bft) 93,62 %
17.01.2019 22:06 0,5 C -0,6 C -0,6 C 97 % 1009,3 hPa 0,0 l/m 0 min 0 min 0 W/m 6,4 km/h (2 Bft) 94,92 %
17.01.2019 22:08 0,5 C -0,6 C -0,6 C 97 % 1009,4 hPa 0,0 l/m 0 min 0 min 0 W/m 9,7 km/h (2 Bft) 93,62 %
17.01.2019 22:10 0,5 C -0,6 C -0,6 C 97 % 1009,4 hPa 0,0 l/m 0 min 0 min 0 W/m 6,4 km/h (2 Bft) 94,29 %
17.01.2019 22:12 0,4 C -0,6 C -0,6 C 97 % 1009,5 hPa 0,0 l/m 0 min 0 min 0 W/m 9,7 km/h (2 Bft) 93,62 %
17.01.2019 22:14 0,4 C -0,6 C -1,1 C 97 % 1009,6 hPa 0,0 l/m 0 min 0 min 0 W/m 9,7 km/h (2 Bft) 95,65 %
17.01.2019 22:16 0,4 C -0,6 C -1,1 C 97 % 1009,7 hPa 0,0 l/m 0 min 0 min 0 W/m 6,4 km/h (2 Bft) 93,62 %
17.01.2019 22:18 0,4 C -0,6 C -1,1 C 97 % 1009,7 hPa 0,0 l/m 0 min 0 min 0 W/m 6,4 km/h (2 Bft) 93,62 %
17.01.2019 22:20 0,4 C -0,6 C -1,1 C 97 % 1009,8 hPa 0,0 l/m 0 min 0 min 0 W/m 9,7 km/h (2 Bft) 95,74 %
17.01.2019 22:22 0,3 C -0,6 C -1,1 C 97 % 1009,9 hPa 0,0 l/m 0 min 0 min 0 W/m 12,9 km/h (3 Bft) 95,74 %
17.01.2019 22:24 0,3 C -0,6 C -1,1 C 97 % 1009,9 hPa 0,0 l/m 0 min 0 min 0 W/m 6,4 km/h (2 Bft) 95,74 %
17.01.2019 22:26 0,3 C -0,6 C -1,1 C 97 % 1009,9 hPa 0,0 l/m 0 min 0 min 0 W/m 6,4 km/h (2 Bft) 95,65 %
17.01.2019 22:28 0,3 C -0,6 C -1,1 C 97 % 1009,9 hPa 0,0 l/m 0 min 0 min 0 W/m 6,4 km/h (2 Bft) 93,62 %
17.01.2019 22:30 0,3 C -0,6 C -1,1 C 97 % 1009,9 hPa 0,0 l/m 0 min 0 min 0 W/m 9,7 km/h (2 Bft) 97,87 %
17.01.2019 22:32 0,3 C -0,6 C -1,1 C 97 % 1010,0 hPa 0,0 l/m 0 min 0 min 0 W/m 6,4 km/h (2 Bft) 97,92 %
17.01.2019 22:34 0,2 C -0,6 C -1,1 C 97 % 1010,1 hPa 0,0 l/m 0 min 0 min 0 W/m 6,4 km/h (2 Bft) 97,87 %
17.01.2019 22:36 0,2 C -0,6 C -1,1 C 97 % 1010,2 hPa 0,0 l/m 0 min 0 min 0 W/m 9,7 km/h (2 Bft) 98,28 %
17.01.2019 22:38 0,2 C -0,6 C -1,1 C 97 % 1010,1 hPa 0,0 l/m 0 min 0 min 0 W/m 9,7 km/h (2 Bft) 97,14 %
17.01.2019 22:40 0,2 C -0,6 C -1,1 C 97 % 1010,2 hPa 0,0 l/m 0 min 0 min 0 W/m 9,7 km/h (2 Bft) 97,87 %
17.01.2019 22:42 0,2 C -0,6 C -1,1 C 97 % 1010,1 hPa 0,0 l/m 0 min 0 min 0 W/m 12,9 km/h (3 Bft) 95,74 %
17.01.2019 22:44 0,2 C -0,6 C -1,1 C 97 % 1010,3 hPa 0,0 l/m 0 min 0 min 0 W/m 9,7 km/h (2 Bft) 97,87 %
17.01.2019 22:46 0,2 C -0,6 C -1,1 C 97 % 1010,3 hPa 0,0 l/m 0 min 0 min 0 W/m 12,9 km/h (3 Bft) 95,74 %
17.01.2019 22:48 0,2 C -0,6 C -1,1 C 97 % 1010,3 hPa 0,0 l/m 0 min 0 min 0 W/m 16,1 km/h (3 Bft) 97,83 %
17.01.2019 22:50 0,2 C -0,6 C -1,1 C 97 % 1010,3 hPa 0,0 l/m 0 min 0 min 0 W/m 9,7 km/h (2 Bft) 95,74 %
17.01.2019 22:52 0,2 C -0,6 C -1,1 C 97 % 1010,3 hPa 0,0 l/m 0 min 0 min 0 W/m 16,1 km/h (3 Bft) 97,87 %
17.01.2019 22:54 0,2 C -0,6 C -1,1 C 97 % 1010,3 hPa 0,0 l/m 0 min 0 min 0 W/m 9,7 km/h (2 Bft) 100,00 %
17.01.2019 22:56 0,2 C -0,6 C -1,1 C 97 % 1010,3 hPa 0,0 l/m 0 min 0 min 0 W/m 6,4 km/h (2 Bft) 97,87 %
17.01.2019 22:58 0,2 C -0,6 C -1,1 C 97 % 1010,3 hPa 0,0 l/m 0 min 0 min 0 W/m 9,7 km/h (2 Bft) 97,87 %
17.01.2019 23:00 0,2 C -0,6 C -1,1 C 97 % 1010,4 hPa 0,0 l/m 0 min 2 min 0 W/m 6,4 km/h (2 Bft) 100,00 %
17.01.2019 23:02 0,2 C -0,6 C -1,1 C 97 % 1010,4 hPa 0,0 l/m 0 min 0 min 0 W/m 12,9 km/h (3 Bft) 100,00 %
17.01.2019 23:04 0,2 C -0,6 C -1,1 C 97 % 1010,5 hPa 0,0 l/m 0 min 0 min 0 W/m 6,4 km/h (2 Bft) 100,00 %
17.01.2019 23:06 0,2 C -0,6 C -1,1 C 97 % 1010,6 hPa 0,0 l/m 0 min 0 min 0 W/m 25,7 km/h (4 Bft) 100,00 %
17.01.2019 23:08 0,2 C -0,6 C -1,1 C 97 % 1010,5 hPa 0,0 l/m 0 min 0 min 0 W/m 12,9 km/h (3 Bft) 94,29 %
17.01.2019 23:10 0,2 C -0,6 C -0,6 C 97 % 1010,6 hPa 0,0 l/m 0 min 0 min 0 W/m 16,1 km/h (3 Bft) 100,00 %
17.01.2019 23:12 0,2 C -0,6 C -0,6 C 97 % 1010,6 hPa 0,0 l/m 0 min 0 min 0 W/m 6,4 km/h (2 Bft) 100,00 %
17.01.2019 23:14 0,2 C -0,6 C -0,6 C 97 % 1010,6 hPa 0,0 l/m 0 min 0 min 0 W/m 12,9 km/h (3 Bft) 100,00 %
17.01.2019 23:16 0,2 C -0,6 C -1,1 C 97 % 1010,6 hPa 0,0 l/m 0 min 0 min 0 W/m 12,9 km/h (3 Bft) 100,00 %
17.01.2019 23:18 0,2 C -0,6 C -0,6 C 97 % 1010,6 hPa 0,0 l/m 0 min 0 min 0 W/m 12,9 km/h (3 Bft) 100,00 %
17.01.2019 23:20 0,3 C -0,6 C -0,6 C 97 % 1010,6 hPa 0,0 l/m 0 min 0 min 0 W/m 16,1 km/h (3 Bft) 100,00 %
17.01.2019 23:22 0,3 C -0,6 C -0,6 C 97 % 1010,7 hPa 0,0 l/m 0 min 0 min 0 W/m 19,3 km/h (3 Bft) 100,00 %
17.01.2019 23:24 0,3 C -0,6 C -1,1 C 97 % 1010,7 hPa 0,0 l/m 0 min 0 min 0 W/m 16,1 km/h (3 Bft) 97,87 %
17.01.2019 23:26 0,3 C -0,6 C -1,1 C 97 % 1010,8 hPa 0,0 l/m 0 min 0 min 0 W/m 19,3 km/h (3 Bft) 100,00 %
17.01.2019 23:28 0,3 C -0,6 C -1,1 C 97 % 1010,8 hPa 0,0 l/m 0 min 0 min 0 W/m 9,7 km/h (2 Bft) 100,00 %
17.01.2019 23:30 0,3 C -0,6 C -1,1 C 97 % 1010,8 hPa 0,0 l/m 0 min 0 min 0 W/m 9,7 km/h (2 Bft) 100,00 %
17.01.2019 23:32 0,3 C -0,6 C -1,1 C 97 % 1010,8 hPa 0,0 l/m 0 min 0 min 0 W/m 22,5 km/h (4 Bft) 97,87 %
17.01.2019 23:34 0,3 C -0,6 C -1,1 C 97 % 1010,7 hPa 0,0 l/m 0 min 0 min 0 W/m 12,9 km/h (3 Bft) 100,00 %
17.01.2019 23:36 0,3 C -0,6 C -1,1 C 97 % 1010,8 hPa 0,0 l/m 0 min 0 min 0 W/m 6,4 km/h (2 Bft) 98,31 %
17.01.2019 23:38 0,3 C -0,6 C -1,1 C 97 % 1010,8 hPa 0,0 l/m 0 min 0 min 0 W/m 16,1 km/h (3 Bft) 100,00 %
17.01.2019 23:40 0,3 C -0,6 C -1,1 C 97 % 1010,8 hPa 0,0 l/m 0 min 0 min 0 W/m 9,7 km/h (2 Bft) 100,00 %
17.01.2019 23:42 0,3 C -0,6 C -1,1 C 97 % 1010,8 hPa 0,0 l/m 0 min 0 min 0 W/m 6,4 km/h (2 Bft) 100,00 %
17.01.2019 23:44 0,3 C -0,6 C -1,1 C 97 % 1010,8 hPa 0,0 l/m 0 min 0 min 0 W/m 9,7 km/h (2 Bft) 97,87 %
17.01.2019 23:46 0,3 C -0,6 C -1,1 C 97 % 1010,8 hPa 0,0 l/m 0 min 0 min 0 W/m 6,4 km/h (2 Bft) 100,00 %
17.01.2019 23:48 0,2 C -0,6 C -1,1 C 97 % 1010,8 hPa 0,0 l/m 0 min 0 min 0 W/m 9,7 km/h (2 Bft) 100,00 %
17.01.2019 23:50 0,2 C -0,6 C -1,1 C 97 % 1010,8 hPa 0,0 l/m 0 min 0 min 0 W/m 6,4 km/h (2 Bft) 97,87 %
17.01.2019 23:52 0,2 C -0,6 C -1,1 C 97 % 1010,8 hPa 0,0 l/m 0 min 0 min 0 W/m 9,7 km/h (2 Bft) 100,00 %
17.01.2019 23:54 0,2 C -0,6 C -1,1 C 97 % 1010,8 hPa 0,0 l/m 0 min 0 min 0 W/m 9,7 km/h (2 Bft) 100,00 %
17.01.2019 23:56 0,2 C -0,6 C -1,1 C 97 % 1010,9 hPa 0,0 l/m 0 min 0 min 0 W/m 6,4 km/h (2 Bft) 100,00 %
17.01.2019 23:58 0,2 C -0,6 C -1,1 C 97 % 1010,9 hPa 0,0 l/m 0 min 0 min 0 W/m 9,7 km/h (2 Bft) 97,83 %
_ Min-Zeit 22:34 18:50 18:48 00:00 10:50 - - - - 07:16 11:14
Minimum _ 0,2 C -0,6 C -1,1 C 85 % 999,3 hPa - - - - 0,0 km/h (0 Bft) 68,09 %
_ Max-Zeit 00:00 00:02 00:00 20:26 23:56 11:04 15:00 12:08 15:02 15:54 00:08
Maximum _ 5,8 C 5,0 C 4,4 C 97 % 1010,9 hPa 0,4 l/m 2 min 4 min 197 W/m 45,1 km/h
N-NW (6 Bft)
100,00 %
Durchschnitt _ 3,5 C 2,7 C 2,2 C 95 % 1002,5 hPa #6,8 l/m #10 min. #10:20 h 43 W/m 14,6 km/h (3 Bft) 96,92 %
© 2019 W. Hausmann